GFSFLT1_925_spd_000.txt.gz
Wind_Speed
3 6 11 13 14 15 13 10 8 5 5 9 12 14 15 15 17 20 21 23 25 26 26 26 24 24 25 23 22 20 19 15
5 7 9 11 12 14 13 10 9 6 8 11 14 16 17 17 19 22 24 26 28 29 32 32 30 30 31 29 27 24 22 18
8 12 13 15 15 13 12 10 9 11 12 14 13 16 20 23 26 28 29 29 33 37 38 39 38 37 36 34 32 30 28 23
3 5 11 11 12 11 10 11 12 12 14 17 19 22 24 27 30 30 30 36 37 35 38 44 45 44 42 41 39 36 30 26
4 7 8 9 6 7 9 11 11 11 12 14 16 18 22 28 31 33 32 30 32 31 30 34 44 48 45 47 43 41 35 24
4 6 4 3 2 3 9 13 14 17 20 21 21 22 25 29 33 32 30 32 30 30 31 29 33 39 43 41 34 27 25 13
7 7 9 13 15 16 17 17 18 20 21 21 21 25 30 34 36 36 35 34 29 27 26 24 20 18 18 14 14 15 13 11
4 8 13 18 20 18 16 16 20 21 18 19 22 27 32 36 38 38 36 33 25 21 15 1 11 16 17 17 15 13 10 13
7 10 13 15 16 18 18 16 23 24 22 22 22 27 31 35 37 37 33 22 10 1 7 12 13 10 7 8 9 10 14 15
7 6 9 15 19 21 19 16 20 22 19 20 27 33 37 38 36 32 24 11 9 8 7 5 3 2 5 9 14 16 13 8
7 8 8 14 16 16 17 19 20 21 18 22 29 34 35 34 34 24 13 9 7 2 2 4 7 8 8 10 8 8 10 13
7 13 11 12 15 16 17 20 20 20 18 25 31 32 31 30 18 10 10 3 2 4 8 11 15 14 14 10 9 10 11 12
9 16 16 16 23 23 20 21 21 16 22 28 29 26 26 16 3 5 2 5 6 9 11 10 13 16 14 12 12 12 13 14
8 11 11 19 27 26 21 21 17 20 24 24 22 23 19 7 7 7 8 9 6 8 9 16 15 14 13 12 13 12 13 14
7 7 12 22 25 23 20 18 17 22 21 17 17 15 8 6 8 9 14 12 12 14 13 21 17 13 12 13 14 12 11 11
8 6 11 17 17 19 18 17 23 20 14 13 12 10 10 11 15 16 20 23 21 18 19 22 15 15 16 15 13 10 13 18
8 8 12 13 17 17 19 21 19 13 12 14 14 14 13 11 17 16 18 22 23 23 19 17 17 16 13 7 9 14 19 23
6 8 14 19 18 17 18 14 11 8 11 15 20 20 19 18 17 16 16 16 15 15 17 17 14 10 7 11 15 20 24 27
9 14 17 18 19 17 8 5 7 8 7 8 12 15 16 14 15 16 17 14 16 16 16 13 12 13 16 20 22 24 25 25

GFSFLT1_925_spd_003.txt.gz
Wind_Speed
4 5 6 8 14 16 13 11 8 8 6 7 8 9 13 14 16 19 21 23 24 25 28 30 30 29 30 30 28 24 24 19
2 1 7 11 12 12 13 11 8 8 7 10 11 12 17 20 22 22 22 22 24 27 30 33 35 34 38 37 33 28 23 23
4 5 7 10 11 11 8 3 5 9 11 12 12 14 15 18 19 24 26 27 28 26 25 27 29 29 30 36 34 28 22 22
5 5 6 5 4 4 6 7 9 11 12 12 13 13 14 14 21 25 28 28 25 27 28 26 26 26 28 31 33 33 32 25
7 8 9 8 6 7 12 17 16 17 16 16 17 12 13 16 19 21 29 30 29 29 30 29 27 25 26 29 29 31 30 31
9 11 11 15 18 18 16 15 17 19 19 20 17 15 14 17 21 27 31 32 29 28 26 25 25 24 24 23 24 24 26 28
8 11 12 13 15 15 14 13 15 18 19 17 16 17 20 23 31 34 33 32 31 27 23 20 18 15 11 6 4 5 1 3
9 10 10 12 15 16 16 16 16 18 17 17 21 24 28 31 33 29 28 26 22 20 14 8 5 9 13 13 13 13 14 13
5 4 4 7 10 13 15 15 14 18 20 19 19 23 28 29 26 29 28 23 15 7 4 4 5 5 4 5 7 7 10 9
2 3 3 5 10 15 21 23 21 18 19 17 18 22 26 27 30 29 23 15 5 1 2 4 4 5 7 8 8 8 10 7
10 12 11 8 13 15 13 11 13 15 15 15 20 24 24 25 25 21 13 2 3 7 6 6 9 10 10 13 13 8 4 2
9 14 14 11 9 12 13 12 15 16 14 20 23 22 21 20 14 10 5 6 6 5 7 9 12 12 10 11 8 7 6 4
11 14 12 8 8 13 14 13 14 13 19 20 17 15 16 12 7 6 7 7 6 6 9 13 15 16 14 11 7 6 8 9
11 12 10 9 13 14 13 14 12 17 18 15 14 14 14 9 7 8 11 11 10 11 13 14 16 16 14 12 11 11 11 10
8 8 9 11 11 11 13 12 14 15 12 9 10 10 10 10 10 11 13 13 14 14 13 16 17 17 15 14 15 12 9 8
10 9 11 11 13 13 12 12 13 11 9 9 9 7 8 12 12 14 15 15 16 15 14 14 15 16 12 12 9 7 9 12
7 7 9 11 12 12 14 13 8 7 3 5 7 8 10 13 14 15 15 15 16 16 16 17 17 13 12 7 8 12 15 17
8 8 11 12 14 14 13 10 6 4 3 7 10 11 12 12 13 16 17 15 15 15 15 14 12 10 10 12 15 17 19 20
11 14 14 15 12 16 13 4 5 6 6 9 11 11 11 13 15 14 14 14 15 15 13 11 13 14 17 18 18 19 19 20

GFSFLT1_925_spd_006.txt.gz
Wind_Speed
9 7 6 7 6 9 11 9 4 2 3 3 4 4 3 5 6 7 10 12 13 15 18 20 20 20 22 23 23 24 24 24
4 1 2 4 5 7 6 6 4 2 1 4 5 7 7 6 7 11 13 13 15 17 18 19 20 21 23 24 26 27 28 27
11 11 11 8 9 8 6 6 6 5 4 4 4 7 7 8 10 14 14 18 18 18 18 20 21 23 23 24 24 26 28 27
11 13 13 11 10 8 9 11 12 11 9 7 6 6 9 10 15 16 19 21 20 19 19 19 20 21 23 24 24 26 28 28
9 8 9 9 11 13 13 11 10 9 10 8 9 9 10 12 13 15 20 19 20 20 20 19 19 19 21 22 23 25 26 29
9 10 12 13 12 11 10 8 9 8 7 9 10 11 11 12 17 20 21 21 20 20 19 18 17 16 17 17 17 17 20 24
9 10 10 11 10 9 7 7 8 10 10 10 10 12 15 18 21 24 23 26 24 22 19 15 11 10 10 9 7 8 8 7
5 5 5 6 6 6 6 8 9 12 12 9 9 12 17 20 23 25 28 26 24 21 15 11 9 6 5 4 4 4 4 5
5 3 4 4 5 7 7 7 9 10 8 11 13 15 18 21 23 25 26 24 20 13 9 9 9 8 8 8 7 11 10 8
5 6 6 6 6 6 7 9 12 14 13 13 14 16 20 20 22 21 21 18 14 11 10 9 5 5 6 6 6 8 11 11
7 11 9 8 10 10 11 12 13 12 12 11 13 16 16 16 17 18 17 13 11 10 6 5 5 7 9 11 12 9 8 10
10 14 14 13 10 9 11 11 10 10 10 13 15 15 13 14 15 14 12 12 10 8 8 9 10 13 16 11 11 13 12 11
12 13 11 9 7 9 10 10 11 9 12 14 15 13 13 14 14 13 12 12 10 10 11 13 17 13 15 14 15 15 14 15
13 14 11 9 10 10 10 10 10 12 13 12 12 13 15 14 14 15 14 13 13 14 16 15 15 18 19 17 15 15 18 19
11 11 10 8 8 9 9 9 9 13 12 13 14 15 12 12 11 11 11 14 16 17 19 19 18 18 18 18 17 19 19 17
10 10 12 14 13 11 10 11 13 11 10 13 9 8 9 12 14 14 15 16 17 17 17 17 17 18 16 15 17 17 17 18
10 12 16 12 12 14 11 15 13 8 11 7 7 10 12 12 13 15 17 17 16 16 17 17 18 17 14 13 15 18 20 22
11 13 16 15 18 13 16 17 10 9 10 7 9 11 12 13 15 16 16 17 17 18 17 16 16 17 16 19 18 21 23 24
13 15 19 21 18 17 17 14 11 11 11 11 10 11 11 14 15 15 16 17 18 18 17 17 19 19 17 17 20 21 21 23

GFSFLT1_925_spd_009.txt.gz
Wind_Speed
12 6 7 6 5 6 11 11 8 6 5 5 6 5 5 6 6 4 6 7 9 12 14 16 18 20 22 22 22 25 26 27
9 2 3 4 3 5 7 10 4 4 5 5 6 8 8 7 7 7 10 10 12 13 15 15 17 19 21 23 25 25 25 25
10 10 10 10 9 10 8 7 3 1 1 4 4 5 6 8 7 12 12 13 15 16 15 17 18 20 22 23 23 25 25 24
11 14 14 12 10 9 9 9 8 9 5 5 8 8 9 13 16 17 17 20 20 19 18 19 20 20 22 22 23 24 25 26
8 11 12 12 12 11 9 8 6 8 10 8 10 10 13 13 15 18 20 20 20 21 21 20 19 21 21 22 21 22 24 26
9 10 10 10 9 8 6 5 6 6 5 6 8 12 17 22 21 17 19 19 20 21 22 22 22 20 18 18 18 17 18 21
7 7 7 7 6 5 4 5 5 5 6 8 13 13 11 16 17 19 18 21 22 22 23 20 19 18 15 16 15 15 9 14
3 3 4 3 3 4 6 10 12 10 13 12 12 13 15 16 19 19 23 24 23 22 19 17 16 16 17 14 11 9 8 8
3 3 6 7 6 9 11 13 14 14 13 16 16 15 16 17 18 21 21 21 22 20 18 18 19 15 13 11 9 9 10 11
3 6 7 9 13 13 11 14 16 15 15 16 14 14 16 16 17 18 20 21 22 21 21 19 13 11 9 10 11 12 13 15
8 10 12 15 17 16 13 14 16 17 16 13 13 16 16 17 18 21 21 20 22 21 19 16 14 12 13 18 21 20 16 15
10 12 13 14 15 14 14 14 13 16 15 14 15 15 15 17 19 19 18 18 18 17 15 14 14 17 21 18 15 18 17 17
13 16 12 16 16 16 15 14 17 11 12 15 16 17 18 19 17 16 17 18 18 18 19 19 19 18 17 18 18 19 19 19
14 17 20 19 16 13 17 15 13 13 15 17 18 18 19 17 15 16 15 15 17 18 19 20 22 22 22 22 22 21 19 21
11 14 19 19 16 16 15 14 14 17 17 17 18 16 15 13 12 15 16 17 19 20 20 21 21 22 22 22 18 20 24 25
12 15 17 15 14 13 15 14 17 18 18 18 17 14 15 15 15 16 17 18 19 19 19 20 20 21 17 13 16 21 23 25
15 16 15 17 15 18 19 17 17 19 18 18 16 15 14 15 15 16 17 18 18 19 20 21 20 21 17 16 17 20 25 26
16 14 15 18 20 22 20 18 19 18 18 18 18 12 15 15 16 17 17 18 19 20 21 20 20 21 16 19 20 21 25 26
12 17 19 22 25 26 25 22 26 24 20 21 16 14 16 16 16 17 17 19 20 21 20 19 21 23 19 19 18 24 24 26

GFSFLT1_925_spd_012.txt.gz
Wind_Speed
19 15 8 6 5 6 8 12 7 10 12 5 4 6 6 2 5 4 7 8 9 14 16 17 19 20 21 21 23 25 25 26
24 19 13 12 9 21 22 16 8 5 2 0 8 11 11 8 9 7 10 9 14 17 18 17 19 20 21 23 24 25 25 24
18 20 21 23 19 17 17 14 11 11 8 8 7 7 5 7 7 15 14 16 20 20 21 18 15 18 21 22 23 25 24 22
12 16 17 16 16 15 15 14 12 10 11 8 8 8 8 11 15 15 15 19 21 18 19 20 20 17 19 23 23 22 19 21
12 16 14 15 15 14 11 9 9 8 6 3 4 5 7 10 11 18 23 16 13 19 21 21 21 19 21 21 18 21 19 18
10 11 13 13 10 8 6 3 3 2 3 4 6 10 13 16 13 12 16 15 20 21 20 21 20 24 22 21 17 16 11 10
9 9 13 12 7 4 3 5 6 4 3 6 11 10 10 15 16 15 17 19 19 19 21 21 20 19 19 15 14 12 11 11
6 7 8 5 3 3 6 12 17 15 10 5 10 12 13 14 16 16 19 19 18 22 22 21 19 18 15 10 9 10 10 11
4 2 1 4 7 10 11 8 14 17 15 11 9 11 12 12 13 15 15 16 17 19 20 20 13 9 10 9 10 11 14 18
2 4 4 6 8 10 10 10 10 12 17 14 10 10 11 12 13 13 16 14 15 20 21 18 15 17 16 16 18 22 24 23
6 10 14 13 16 16 14 13 11 12 14 14 12 13 11 11 13 15 10 17 22 20 20 19 19 18 17 18 20 20 20 21
10 16 19 19 18 16 12 11 13 16 13 12 12 12 13 12 13 13 15 18 19 20 20 20 21 21 20 20 18 18 17 19
12 14 17 16 16 15 15 16 14 11 12 14 16 15 13 16 16 17 17 16 16 19 21 21 21 20 20 21 21 20 22 20
11 12 13 18 19 16 16 18 13 11 12 15 15 12 13 14 18 12 15 17 18 19 21 21 21 21 21 22 22 17 21 24
9 11 16 17 18 18 17 15 16 15 19 15 13 8 8 11 10 14 16 17 19 19 19 19 21 22 23 16 15 18 20 21
12 11 15 16 17 18 18 19 18 18 17 25 18 15 11 4 9 12 16 17 17 16 18 20 22 20 14 17 18 17 19 22
13 15 17 15 17 20 21 23 20 12 17 23 21 20 9 9 7 10 15 17 15 18 18 19 19 17 17 19 21 22 21 23
14 13 15 16 18 23 23 24 22 21 25 15 12 11 9 13 12 8 14 15 18 18 19 16 13 15 14 19 20 22 19 23
13 15 16 16 21 22 23 26 29 31 28 20 14 11 12 13 10 8 10 15 18 20 16 13 14 16 22 26 24 21 21 21

GFSFLT1_925_spd_015.txt.gz
Wind_Speed
28 30 31 29 24 24 27 22 15 20 16 9 6 7 9 11 9 10 7 6 8 12 19 20 17 20 21 23 25 27 26 25
32 34 36 34 32 31 24 20 18 14 10 9 11 10 9 13 12 10 9 10 12 16 21 13 13 14 19 22 22 25 28 27
24 32 34 34 28 23 21 20 19 17 16 16 12 10 8 6 9 10 13 14 17 13 14 16 17 17 18 21 24 26 19 16
15 23 27 27 26 22 19 17 13 16 12 7 6 8 9 13 16 17 17 13 12 13 15 16 18 18 20 23 23 18 21 18
15 20 22 20 19 16 15 11 9 6 5 9 8 8 10 13 12 10 9 10 14 17 19 22 24 25 24 19 15 12 13 10
10 19 18 13 11 9 7 5 4 6 3 3 1 3 4 6 8 7 11 16 20 20 23 22 21 18 16 17 16 14 11 10
14 21 17 13 8 5 3 3 11 7 3 1 2 4 7 7 7 10 15 18 17 20 18 18 18 15 15 13 10 10 10 11
7 12 15 14 10 5 1 3 5 7 6 5 5 6 6 8 10 13 16 14 15 13 17 20 18 16 15 14 12 11 12 15
7 9 6 6 6 7 7 5 7 10 9 9 9 8 7 7 9 12 11 7 9 18 21 16 16 19 20 18 18 20 22 23
8 17 18 17 18 15 12 11 10 11 9 6 7 8 7 7 10 6 4 9 18 18 18 18 19 22 21 21 22 24 21 17
10 17 20 19 19 13 13 11 11 12 6 8 8 8 10 9 4 3 8 13 18 19 18 20 20 21 20 21 21 22 21 20
6 13 16 17 18 13 13 15 16 9 7 10 11 12 3 1 5 6 9 14 17 13 14 15 18 17 19 20 20 20 18 15
10 15 18 19 20 19 21 20 16 6 11 11 13 15 10 11 6 9 10 10 10 9 12 15 15 18 20 21 20 13 17 20
10 17 18 18 17 20 21 19 13 18 16 17 14 8 13 15 13 6 2 5 7 10 12 11 13 17 20 18 14 17 20 22
7 10 15 15 12 15 18 20 21 24 10 20 23 19 17 10 3 7 7 10 11 10 8 12 14 16 14 12 16 17 19 22
6 6 12 16 13 16 18 23 23 17 24 23 26 21 9 11 12 8 19 14 10 5 12 14 13 9 11 13 16 20 24 25
7 10 14 14 13 16 21 20 24 25 26 30 19 7 9 9 10 12 22 8 5 12 14 14 5 8 10 14 22 25 24 21
6 10 17 15 13 16 20 20 23 25 29 24 18 18 15 15 14 15 9 5 10 14 12 4 9 10 10 20 21 20 22 20
9 16 14 15 13 17 19 19 22 24 18 22 19 18 14 13 6 18 3 10 15 8 8 11 10 16 21 18 16 18 18 20

GFSFLT1_925_spd_018.txt.gz
Wind_Speed
23 26 23 25 28 29 17 12 15 13 10 10 9 10 17 13 12 11 8 7 8 10 12 10 11 12 15 19 21 23 26 28
29 33 32 31 26 22 17 13 16 10 14 14 15 16 17 15 13 12 9 9 10 11 12 13 14 15 16 18 23 25 25 21
23 32 32 28 27 23 19 20 21 19 17 17 13 11 10 12 8 5 6 8 10 12 13 16 18 20 21 21 21 21 19 17
14 23 28 24 21 19 17 16 15 12 9 7 6 4 2 4 8 8 8 7 9 11 15 17 18 18 19 19 18 17 14 14
14 20 22 21 19 17 15 11 9 6 2 3 4 2 1 0 1 3 5 8 12 15 16 17 17 17 17 17 17 15 14 11
9 17 19 16 14 11 8 5 3 2 1 2 3 4 6 7 3 1 4 10 12 15 15 15 15 15 13 13 12 11 10 8
11 14 15 13 9 7 6 8 6 2 3 3 3 6 8 5 3 8 11 9 9 10 11 13 14 11 13 13 11 11 12 16
7 10 10 8 3 3 4 7 12 8 6 6 5 3 2 3 6 10 11 6 3 7 12 12 11 13 16 15 15 16 17 18
6 11 12 15 15 16 13 13 13 11 7 5 4 3 5 6 5 3 6 3 1 7 9 8 12 14 14 14 15 15 16 16
11 19 18 17 16 15 13 11 9 7 4 3 5 5 5 8 9 10 9 7 6 6 5 7 9 11 12 11 12 14 14 16
7 16 18 17 15 13 10 8 9 5 2 5 7 8 9 13 13 12 9 9 8 6 9 8 6 7 9 10 11 12 10 7
7 14 17 14 10 11 12 12 12 5 6 12 13 14 16 13 10 9 10 8 8 14 9 6 9 8 8 10 13 8 7 9
8 9 10 10 12 13 14 13 12 10 16 13 12 16 11 9 8 11 16 15 8 15 9 7 8 9 11 13 14 10 9 10
6 11 14 14 9 9 12 14 17 17 15 15 22 25 20 19 19 15 7 4 9 12 12 11 11 11 11 14 10 9 11 15
5 9 8 8 7 7 10 14 14 15 15 17 20 21 18 18 11 9 17 17 18 14 12 9 13 10 11 10 11 13 17 21
5 4 7 10 7 8 10 12 14 13 15 15 14 14 17 16 18 20 19 17 18 16 9 11 11 10 8 11 13 20 22 20
3 5 8 11 7 8 10 11 12 12 11 10 13 17 18 17 17 19 18 18 5 9 11 11 5 8 10 13 20 19 19 20
5 6 7 5 7 8 9 10 11 9 6 6 12 19 19 16 15 14 14 9 5 12 8 3 5 9 11 16 16 16 17 18
5 6 7 5 7 10 12 12 9 2 5 12 16 18 17 17 15 14 4 4 12 8 1 3 9 12 13 13 14 17 16 17

GFSFLT1_925_spd_021.txt.gz
Wind_Speed
13 18 19 22 23 27 18 9 6 3 0 11 16 17 18 16 13 9 4 3 5 10 11 12 13 15 18 22 24 25 26 22
19 24 26 25 23 17 10 7 6 9 15 20 20 19 15 11 5 3 3 6 8 9 10 11 12 16 18 20 21 21 22 21
19 25 29 25 19 13 8 9 11 14 15 13 10 9 6 3 2 2 3 3 4 6 9 12 14 16 16 17 18 19 15 18
8 17 26 24 22 20 18 17 14 10 9 9 9 9 8 5 5 4 3 5 9 13 17 15 13 13 14 14 15 15 14 16
7 14 22 23 20 17 14 11 9 7 5 4 5 7 9 6 7 4 4 5 8 13 14 13 12 13 16 11 9 9 9 9
8 13 20 18 16 12 8 6 4 2 3 4 5 4 3 7 6 4 3 8 17 21 11 9 12 15 10 9 9 6 6 6
9 16 16 13 10 8 9 8 6 4 4 3 2 3 5 2 2 8 13 16 19 9 7 10 13 11 12 12 9 9 10 12
4 8 9 13 10 9 8 7 9 7 5 5 4 2 2 7 10 14 18 18 14 10 8 9 9 8 7 8 10 11 10 11
6 11 19 20 16 13 10 9 6 4 4 5 5 6 7 10 13 15 17 16 13 6 8 9 9 9 10 8 9 10 11 11
8 15 18 17 13 10 8 6 4 2 1 2 5 8 11 13 14 17 17 14 10 8 6 6 10 9 10 9 8 10 10 11
7 14 15 12 9 5 5 5 6 6 4 8 12 12 13 16 19 18 17 12 10 8 7 18 15 12 8 8 8 9 13 10
5 11 11 8 6 5 4 4 8 5 6 10 12 14 17 19 18 16 11 11 13 13 14 19 13 12 10 8 11 13 11 11
7 8 6 4 3 3 4 6 6 5 5 6 9 13 17 17 14 12 14 19 17 12 11 13 19 13 10 11 12 10 11 13
3 4 4 3 2 2 6 6 6 6 7 10 14 16 16 14 15 18 21 22 18 18 18 18 14 15 13 14 12 11 11 14
4 3 2 1 3 5 5 5 6 7 10 13 13 12 14 15 15 17 21 20 19 20 17 13 14 12 19 12 11 12 15 21
2 1 2 7 4 5 3 5 6 8 9 10 9 10 13 15 19 20 21 18 17 15 10 9 12 17 8 10 12 18 21 22
3 2 5 3 6 3 2 6 8 8 9 8 8 11 15 17 18 17 16 15 11 7 8 9 9 5 8 11 16 17 17 21
3 4 2 6 5 1 5 10 11 11 8 8 10 13 16 18 17 16 13 14 5 4 7 3 3 7 9 12 14 17 19 19
3 4 7 8 3 5 9 11 12 10 6 9 11 14 18 19 17 15 11 2 8 10 2 2 5 8 10 13 14 16 19 22

GFSFLT1_925_spd_024.txt.gz
Wind_Speed
8 6 13 18 22 26 24 13 10 5 7 14 14 16 16 12 8 4 3 7 5 6 6 8 12 13 16 18 18 16 14 14
12 18 21 26 26 24 15 14 8 18 21 21 16 13 9 3 4 4 1 0 3 7 8 11 14 18 18 18 19 18 16 19
13 22 25 25 22 16 15 14 17 16 16 11 5 8 7 7 5 3 1 2 4 7 11 16 19 18 16 18 18 13 10 13
6 16 20 21 21 19 19 20 21 16 9 9 9 6 5 6 5 3 2 3 6 12 18 17 13 14 17 18 13 12 11 11
5 10 20 19 18 18 17 15 13 11 8 3 4 3 6 5 5 2 3 7 9 17 18 12 13 15 15 12 11 11 10 8
7 9 14 13 11 12 12 10 7 4 2 2 2 2 2 2 1 4 6 11 14 16 12 10 9 10 7 8 7 7 8 8
2 12 10 9 8 9 8 7 6 2 1 2 3 3 3 1 4 7 10 14 16 12 10 8 7 9 11 11 10 9 9 9
5 11 12 7 10 11 11 9 10 7 6 5 6 5 4 6 9 12 15 16 19 17 11 7 8 8 9 10 9 10 10 11
5 8 11 16 15 13 12 10 6 4 4 4 6 6 8 9 13 15 17 19 18 12 8 8 7 10 24 13 13 12 12 13
6 13 14 16 15 11 8 5 3 2 2 4 6 8 10 14 16 19 21 20 15 11 12 12 14 21 13 16 14 12 13 13
6 13 14 13 10 9 7 6 3 0 3 4 8 9 10 13 16 17 19 17 15 16 19 17 18 19 15 12 14 13 13 13
6 11 9 7 8 7 7 5 3 1 3 5 6 9 12 14 14 14 14 15 18 24 21 16 14 8 14 15 13 17 15 13
7 8 6 5 5 7 4 1 0 1 3 5 8 11 10 9 10 12 14 19 23 22 17 12 15 19 14 15 18 16 14 14
4 4 4 3 2 3 3 3 2 2 4 7 8 6 8 10 12 17 22 22 20 14 13 18 15 9 10 11 14 11 11 14
4 4 5 2 4 5 6 4 1 3 7 7 5 6 9 13 16 21 22 21 19 17 17 16 9 3 9 11 7 11 16 20
5 4 5 2 5 7 5 1 3 7 10 10 7 7 12 17 21 23 21 20 17 15 7 3 5 10 7 6 10 16 19 21
6 6 4 6 10 8 3 4 8 10 12 9 8 11 16 19 20 21 21 17 14 14 8 7 5 2 4 8 13 16 18 22
7 6 7 8 8 4 4 8 11 12 11 8 9 14 17 19 19 19 18 15 7 5 8 3 1 4 8 11 14 16 19 22
6 7 6 8 6 4 8 11 12 11 7 9 12 15 17 17 18 18 16 10 8 11 3 2 2 6 9 11 12 16 20 21

GFSFLT1_925_spd_027.txt.gz
Wind_Speed
6 7 11 15 18 23 25 21 18 9 14 3 9 9 12 12 9 5 8 5 2 3 6 9 12 15 14 12 11 11 10 11
6 10 14 17 21 25 23 22 19 7 11 16 15 15 13 9 7 8 4 2 3 9 12 13 15 13 13 14 12 12 12 14
9 13 16 16 19 18 18 14 11 15 19 18 14 12 8 8 8 6 4 4 8 10 16 15 13 10 13 15 12 9 9 10
11 13 14 15 15 16 15 15 17 17 17 14 8 8 8 7 5 2 4 5 7 11 14 9 8 9 9 9 8 8 10 9
11 13 11 12 13 16 18 21 18 19 12 8 7 2 2 2 1 2 3 8 9 12 10 9 7 8 8 7 7 7 7 8
11 14 16 17 15 14 15 16 14 11 6 4 2 4 6 7 5 4 5 9 12 14 12 10 9 9 9 8 6 5 6 7
11 12 14 15 16 16 15 11 10 7 6 7 10 10 8 6 6 7 9 13 15 16 15 13 10 8 7 6 9 6 6 6
10 12 11 12 13 13 13 11 12 11 10 9 9 7 6 5 6 8 11 12 15 18 16 14 13 11 10 11 9 8 8 8
8 10 9 9 10 12 12 10 10 8 8 7 5 3 5 7 11 14 15 18 20 20 16 14 15 15 10 12 9 10 9 8
10 9 9 11 11 11 9 8 7 7 6 2 1 5 6 7 9 12 14 15 15 13 14 17 17 12 13 13 10 11 12 12
9 11 12 11 9 8 8 9 8 6 4 2 1 2 3 7 10 12 12 14 16 19 20 16 14 13 14 14 11 13 15 13
10 12 11 9 9 8 8 8 6 6 4 4 4 3 7 9 9 10 12 15 19 21 21 18 16 15 14 15 12 11 14 14
12 13 10 9 9 8 7 5 5 6 5 3 3 7 7 7 9 10 15 19 22 21 18 12 9 13 14 12 9 10 11 10
10 10 9 9 9 8 5 4 4 4 1 4 8 7 6 7 10 14 18 19 18 16 11 12 13 13 7 5 9 10 6 8
10 8 9 7 6 5 5 5 4 2 5 7 8 7 7 9 13 17 19 20 17 14 13 13 6 2 4 8 6 4 8 12
9 8 9 7 7 8 8 7 4 5 8 10 10 8 8 12 16 20 20 17 13 13 10 6 5 4 2 1 4 8 12 15
10 10 11 10 12 11 9 6 4 7 10 11 9 8 10 15 19 18 16 14 12 8 6 4 3 1 2 6 9 11 13 14
11 12 14 12 10 11 8 5 6 9 10 8 6 8 13 17 15 14 14 12 8 5 8 4 2 1 6 10 13 10 12 15
11 13 10 9 12 10 5 5 8 7 6 6 8 11 14 14 13 14 14 10 8 8 6 4 2 3 8 11 13 10 12 14

GFSFLT1_925_spd_030.txt.gz
Wind_Speed
7 7 10 14 17 21 23 22 24 18 11 10 11 6 6 7 7 8 6 4 4 5 5 4 6 7 9 11 13 14 16 16
8 9 13 16 17 20 21 22 22 16 10 10 9 8 9 9 4 5 5 5 5 4 3 5 6 7 8 9 12 15 16 16
10 11 13 15 18 18 19 19 13 9 10 10 8 9 7 6 6 6 5 4 3 3 5 5 5 6 7 9 11 14 16 16
10 13 15 16 17 16 17 14 13 12 11 10 8 8 7 6 4 3 3 3 2 3 3 4 5 8 10 9 10 12 16 17
13 16 17 18 17 15 15 15 15 12 10 7 6 3 4 2 3 3 2 1 2 4 6 6 8 10 10 10 10 12 15 16
14 17 17 15 14 15 16 15 13 11 6 5 5 4 6 6 4 2 3 4 7 9 10 10 11 12 12 9 9 17 16 14
16 16 15 15 13 13 14 15 11 9 8 8 8 8 5 2 1 5 7 10 12 13 13 13 14 14 13 11 14 17 14 13
15 16 16 14 12 12 12 13 13 12 11 9 7 5 3 1 4 7 11 13 15 17 17 16 16 16 14 13 16 17 14 14
15 17 15 14 14 13 13 13 13 10 9 8 7 3 1 3 5 8 10 13 15 15 15 15 16 16 17 17 18 17 16 13
15 16 14 14 13 13 11 10 9 9 8 5 3 0 1 2 4 7 9 10 12 14 16 18 19 19 19 18 20 19 17 14
13 15 14 14 13 12 9 9 9 8 6 3 2 3 1 2 4 7 8 11 14 18 20 21 21 20 19 19 20 19 15 15
13 14 15 15 13 12 11 10 9 8 6 5 5 3 1 3 5 7 9 13 17 20 20 20 19 18 17 18 19 15 13 14
13 17 18 16 15 13 12 10 10 9 7 7 4 2 4 5 6 8 11 16 18 19 18 17 16 15 16 16 15 9 11 14
14 18 18 17 15 14 12 11 10 9 9 6 4 5 7 7 8 10 14 17 17 16 15 15 15 15 14 9 7 9 11 11
16 16 18 17 16 15 14 12 12 10 7 5 6 8 8 8 9 12 15 16 15 15 14 12 9 9 6 6 8 7 11 14
17 16 17 17 17 16 14 11 11 8 5 6 8 8 8 8 10 14 15 14 14 15 12 9 8 7 5 5 6 11 14 16
17 16 18 18 17 15 13 13 10 5 5 8 8 8 8 9 12 14 13 14 13 12 8 7 6 5 7 5 8 13 15 15
17 16 18 17 15 14 14 12 7 6 8 8 7 7 9 11 13 13 13 13 12 11 10 9 8 6 7 7 12 12 13 13
15 17 15 14 12 13 11 8 7 7 7 7 7 9 11 12 12 13 14 13 12 12 10 9 9 7 7 9 12 10 12 13

GFSFLT1_925_spd_033.txt.gz
Wind_Speed
11 12 13 16 17 17 19 20 19 19 17 9 10 4 5 6 6 6 6 4 4 3 1 2 5 7 8 10 13 16 17 21
11 12 12 15 18 18 19 20 18 16 9 7 7 7 8 6 6 5 5 5 4 2 2 4 6 8 8 11 14 17 18 19
13 13 15 16 17 18 19 17 16 13 8 10 9 10 9 7 6 7 6 5 3 0 3 5 6 10 12 13 15 16 18 18
12 15 16 16 16 18 19 17 17 13 13 12 11 9 7 7 7 5 5 3 2 2 4 7 9 12 14 14 14 15 19 19
14 16 15 17 17 17 17 19 17 14 14 13 12 11 8 6 4 4 4 3 3 5 7 9 11 13 14 15 15 15 18 21
15 18 21 21 21 20 17 15 16 15 12 10 8 5 2 3 3 3 4 6 7 8 10 11 14 16 17 17 17 17 19 21
16 19 20 18 16 16 17 17 15 13 11 8 6 7 4 4 4 5 6 7 10 11 12 15 16 19 19 18 16 19 19 19
16 17 19 19 17 16 17 16 14 12 11 10 9 8 5 4 4 5 6 9 10 12 14 17 17 18 19 19 15 18 23 19
16 18 18 18 17 17 17 15 14 13 12 10 8 6 4 2 3 5 6 8 10 12 13 15 17 19 20 21 19 18 21 17
17 19 18 17 18 17 17 17 16 14 12 10 8 5 3 4 4 4 6 7 9 11 14 17 19 20 21 22 22 17 21 20
16 18 18 18 17 16 16 16 15 14 13 10 6 4 6 5 5 5 6 7 10 13 15 17 18 19 19 21 19 19 19 18
15 17 19 18 18 18 18 17 17 15 12 8 6 6 7 7 6 5 6 8 12 14 16 17 17 18 17 14 17 18 19 13
16 19 19 19 19 20 20 18 17 14 10 8 7 9 8 8 7 7 8 11 13 15 16 16 17 16 17 17 17 13 10 12
15 17 18 20 20 20 19 18 16 13 9 9 9 10 9 9 9 9 10 13 15 16 15 16 16 16 14 12 9 7 10 10
15 14 18 20 21 21 19 18 15 11 10 8 12 8 9 10 10 10 12 14 15 15 15 15 13 14 10 9 8 8 9 13
15 15 16 21 20 20 19 17 12 11 10 12 10 9 9 10 10 11 13 14 14 15 15 12 11 10 8 4 8 11 14 17
15 16 18 20 20 20 19 14 13 12 12 11 9 9 10 10 11 12 14 14 15 16 14 11 11 10 8 9 8 11 15 16
15 15 18 18 19 19 16 16 13 11 11 9 9 9 9 10 12 14 14 15 15 16 14 12 12 9 10 9 9 11 15 13
12 14 17 17 17 15 16 13 9 11 9 8 8 9 10 11 13 15 15 15 16 16 13 11 11 9 12 10 11 12 13 12

GFSFLT1_925_spd_036.txt.gz
Wind_Speed
21 19 20 20 27 26 20 22 22 23 18 9 5 4 1 2 6 6 8 6 6 6 3 1 3 4 4 8 9 11 14 17
13 10 14 17 28 25 24 21 16 18 12 8 5 7 10 10 9 9 7 6 6 5 3 2 2 4 7 8 8 11 12 15
14 14 14 17 26 25 26 24 19 16 14 9 10 12 11 10 11 9 9 8 6 3 2 1 3 5 9 9 10 12 13 14
13 13 13 13 22 27 26 22 16 18 16 15 15 14 13 13 11 10 10 8 5 2 1 2 4 6 10 12 13 13 10 15
15 15 17 18 20 23 23 21 20 22 19 17 18 16 15 16 15 16 13 9 5 3 4 5 7 8 11 13 13 16 15 14
16 17 18 15 19 19 21 24 26 20 17 17 17 10 14 10 10 10 7 5 7 7 7 5 7 9 12 16 19 17 12 14
10 17 18 20 22 26 27 24 20 17 14 9 12 10 11 12 9 8 4 3 3 4 4 7 11 14 14 16 18 17 15 18
11 14 21 24 24 20 20 18 18 17 14 10 9 10 8 7 5 2 2 4 4 7 8 10 11 14 17 19 20 21 19 19
11 13 16 18 17 17 20 19 19 17 14 13 12 12 9 7 7 3 3 5 5 8 9 8 12 15 17 19 20 20 18 15
13 16 19 19 18 18 19 20 19 19 17 15 13 11 9 8 4 5 3 4 5 5 8 11 14 16 17 19 21 21 16 15
13 16 18 21 20 21 19 18 20 21 19 15 12 11 8 6 5 5 5 5 5 8 9 12 14 15 16 18 13 14 18 17
13 15 20 19 20 19 18 18 18 20 18 16 14 10 12 9 10 8 6 6 7 8 11 13 14 16 13 17 18 18 13 11
14 16 19 18 18 17 17 17 16 18 18 17 15 12 10 14 7 8 7 6 8 9 11 13 14 13 13 14 15 14 9 9
13 15 17 19 18 19 18 18 17 18 18 14 10 14 11 9 10 6 7 7 8 10 12 13 15 10 11 11 10 11 10 9
12 11 15 20 19 19 19 20 17 16 13 12 14 5 16 4 6 6 6 8 9 12 12 14 12 8 10 11 8 8 7 11
10 8 7 16 17 18 19 20 18 16 12 7 7 11 5 7 6 7 8 9 11 13 13 16 10 8 10 6 6 6 8 13
4 4 6 11 16 18 18 16 18 14 9 10 8 12 1 6 6 7 10 12 13 12 13 16 10 8 11 9 9 8 8 13
3 6 7 10 13 19 16 16 16 11 11 12 5 5 8 6 6 9 11 13 12 14 16 16 12 11 12 13 11 8 9 11
5 4 7 9 8 14 13 15 12 10 2 3 7 6 6 7 8 12 13 15 13 13 15 16 13 12 13 13 11 8 7 11

GFSFLT1_925_spd_039.txt.gz
Wind_Speed
27 33 33 38 35 34 30 30 29 25 24 19 13 10 11 12 12 13 14 13 12 7 4 4 5 2 2 6 4 5 9 10
27 32 35 39 38 37 35 34 29 28 24 19 16 16 14 15 13 15 12 11 11 8 7 6 6 3 4 6 5 10 9 9
14 24 28 35 39 35 38 37 33 28 22 16 13 15 14 16 14 13 11 9 10 8 7 5 3 1 3 6 9 11 9 7
8 12 26 31 35 36 36 33 27 25 20 17 16 15 16 17 15 15 12 12 10 5 2 4 3 4 6 8 10 10 7 12
13 15 21 27 28 36 35 30 23 23 24 24 25 23 23 22 18 18 17 14 10 6 5 4 5 4 6 7 9 14 16 13
15 16 23 30 31 33 30 25 22 23 22 27 25 25 23 23 20 21 17 13 8 7 6 4 4 2 5 8 10 12 12 9
15 20 25 28 30 29 26 26 23 23 22 26 24 21 23 26 25 20 16 10 9 8 5 2 2 6 9 12 14 16 16 18
14 15 19 26 26 27 25 25 24 23 21 21 19 26 23 22 22 19 18 14 10 5 3 6 8 9 11 13 14 15 16 17
15 17 20 23 24 23 26 26 29 26 21 18 17 18 20 19 18 15 11 7 4 3 3 5 7 10 12 15 18 17 17 11
9 12 22 25 24 25 26 30 30 26 22 19 18 17 16 15 11 7 7 5 5 4 1 5 9 11 13 15 13 8 11 13
8 12 21 24 21 19 18 20 26 24 22 22 21 18 15 9 9 7 4 5 5 4 5 5 8 11 13 8 9 13 15 11
9 12 25 28 25 21 19 14 23 25 25 23 19 16 10 11 7 6 6 7 7 5 6 8 10 11 7 9 12 14 11 6
11 16 24 28 31 29 28 21 20 27 25 21 19 15 13 6 7 7 8 13 9 8 8 8 10 11 11 9 9 8 8 8
11 13 19 24 28 33 31 23 25 25 23 22 18 14 9 8 4 13 13 11 8 7 7 11 11 10 6 6 5 5 5 5
13 13 17 26 26 26 31 28 23 26 26 22 15 11 9 2 4 3 12 6 5 7 11 13 15 15 11 9 7 6 5 5
7 11 7 20 25 25 27 26 25 29 24 16 15 9 8 1 10 12 6 10 11 12 14 15 15 15 12 12 11 12 10 11
8 8 9 15 22 27 27 28 28 27 24 20 14 5 2 3 4 12 8 9 12 13 13 14 17 15 15 14 13 13 10 8
7 5 10 19 26 28 24 27 30 24 19 13 9 13 3 10 7 6 7 14 18 16 19 15 14 16 16 16 15 13 9 8
8 8 4 10 20 24 29 29 24 22 20 14 9 10 9 7 11 14 16 18 17 19 14 15 15 17 16 16 15 14 10 8

GFSFLT1_925_spd_042.txt.gz
Wind_Speed
31 34 34 35 38 39 32 30 34 33 29 24 20 17 14 11 11 11 13 14 13 11 9 8 8 7 5 3 3 3 3 3
31 33 35 37 37 39 35 35 34 32 29 25 20 17 12 11 12 14 15 15 13 10 11 11 10 7 4 3 2 5 5 4
22 28 30 34 35 38 37 36 35 33 30 28 20 15 12 10 13 16 15 14 13 17 13 12 10 6 1 1 5 6 6 5
16 24 30 31 30 39 41 39 37 33 29 23 13 11 10 14 16 17 19 19 18 14 10 7 4 3 3 2 3 4 5 9
17 24 27 31 34 40 42 40 37 32 26 21 20 23 22 24 27 24 22 20 17 12 9 7 7 7 5 2 1 3 6 8
18 24 36 37 38 41 40 38 35 28 29 26 29 29 29 27 27 26 23 19 15 12 12 11 11 8 4 1 3 6 7 9
15 18 25 27 32 38 40 35 33 30 35 28 34 32 31 27 29 28 24 19 15 12 12 11 7 3 2 4 6 8 9 11
9 12 21 25 32 35 35 37 33 30 31 28 34 34 32 32 32 29 24 18 16 10 6 4 2 0 4 8 11 12 10 11
13 15 21 27 29 29 30 35 29 25 27 26 35 31 30 27 28 24 21 18 12 9 3 2 2 6 8 10 11 10 7 8
14 15 21 24 26 31 33 28 26 24 24 24 25 25 23 22 21 18 18 14 13 6 4 6 13 11 12 11 9 5 9 13
7 11 20 24 30 29 28 27 27 27 28 27 24 24 24 21 17 16 12 11 9 2 8 13 13 9 12 9 7 10 13 12
12 12 22 29 28 25 24 26 29 32 29 25 27 27 24 19 16 12 12 6 2 6 10 10 9 9 10 9 8 10 10 6
13 18 25 28 32 31 31 33 36 34 33 33 32 28 22 18 13 13 6 5 7 9 11 9 6 11 12 11 10 8 8 8
9 10 18 26 29 35 35 35 36 36 35 32 27 23 21 17 17 13 5 7 12 10 7 6 13 9 13 14 13 10 10 10
11 10 15 22 25 25 23 29 32 33 33 32 29 25 22 20 15 11 7 8 11 7 9 10 10 12 13 15 14 14 13 13
5 4 4 14 15 16 22 27 31 35 34 32 27 21 17 13 10 9 6 4 6 7 8 14 18 14 15 17 19 17 16 15
4 6 10 16 22 25 24 27 27 26 25 21 22 19 14 11 9 7 5 1 3 9 16 20 17 17 17 19 21 19 17 17
5 4 8 17 22 27 24 23 26 27 26 22 19 17 17 12 8 7 7 6 15 17 20 17 24 22 20 18 21 19 18 17
9 11 15 13 17 22 27 29 29 28 26 23 19 18 16 13 9 1 9 14 18 17 21 24 20 21 18 17 20 19 18 15

GFSFLT1_925_spd_045.txt.gz
Wind_Speed
24 26 25 25 30 25 28 30 30 30 30 26 25 24 22 18 15 13 15 18 18 17 16 14 13 10 6 5 2 3 3 3
23 26 26 25 26 27 33 34 34 35 32 31 27 24 20 17 15 15 17 18 17 17 15 15 13 10 7 2 1 1 2 1
20 25 26 30 33 32 35 36 36 36 36 33 27 25 21 17 16 16 18 18 19 17 15 14 12 7 4 4 2 0 1 2
17 24 30 30 33 40 41 39 40 39 36 30 20 22 15 16 17 20 21 19 18 17 13 11 8 5 5 5 4 4 2 2
17 22 26 32 41 43 44 44 42 41 37 34 28 27 18 18 22 23 20 18 16 14 11 9 8 7 6 3 1 3 3 3
19 24 34 36 31 35 34 35 39 40 37 33 26 23 20 17 21 22 20 18 16 13 10 8 8 7 6 3 2 4 4 5
14 22 20 24 30 32 34 37 40 38 35 33 29 25 24 20 21 21 20 19 15 13 13 12 11 5 3 6 7 7 7 8
11 13 19 23 29 32 34 34 34 38 36 35 33 30 29 23 24 26 24 22 18 17 15 10 7 4 7 7 7 9 7 7
13 16 24 26 28 31 31 30 29 35 37 33 32 29 29 28 26 29 30 26 23 20 14 11 4 5 6 11 18 11 5 6
16 15 21 23 27 32 35 31 32 34 36 30 31 30 28 28 25 25 23 23 19 10 6 6 1 6 16 14 11 7 5 7
8 12 19 23 26 32 30 34 35 34 29 30 31 29 27 22 21 26 27 22 15 16 11 5 13 12 12 10 10 8 7 8
11 12 21 25 26 29 33 33 33 30 31 30 27 30 29 28 30 32 31 24 22 15 16 14 12 13 9 9 10 10 9 8
10 13 19 24 29 31 35 34 33 33 34 30 32 31 31 34 32 28 26 24 23 17 15 14 13 8 9 12 12 11 11 10
3 5 12 20 25 27 29 31 31 33 32 33 32 32 33 31 28 25 24 17 11 12 10 9 5 8 10 11 13 14 14 14
5 4 7 15 17 18 21 21 26 30 31 30 28 28 26 23 23 25 16 12 9 10 8 3 9 12 13 14 15 17 18 17
7 6 6 8 8 12 16 21 24 27 27 25 25 24 21 18 18 12 8 11 9 5 3 11 17 20 17 15 15 18 21 20
1 6 6 12 15 16 18 21 23 25 25 23 22 19 19 17 16 17 14 12 6 7 13 17 23 16 16 20 19 20 22 22
8 7 6 5 8 14 19 22 22 22 23 22 23 22 23 20 16 11 7 8 13 15 18 17 14 20 21 19 19 20 23 23
8 10 14 15 16 19 23 24 25 26 25 26 25 25 22 13 7 11 10 12 13 14 18 19 20 17 19 21 19 21 23 22

GFSFLT1_925_spd_048.txt.gz
Wind_Speed
20 23 25 27 28 26 24 24 21 25 25 24 23 23 22 21 18 17 16 17 20 20 20 18 17 14 12 9 3 2 1 3
20 23 26 26 26 29 28 25 24 26 27 25 24 25 24 20 17 16 16 18 20 20 19 17 17 14 10 6 5 4 5 4
16 22 25 29 30 32 29 29 29 29 29 30 27 28 23 20 17 16 17 18 20 19 18 19 17 13 9 10 7 4 3 5
13 19 24 27 31 35 36 34 34 34 32 31 23 23 18 19 19 18 19 19 19 19 19 17 15 12 12 9 4 3 3 4
12 17 22 30 36 35 35 33 34 34 34 34 33 31 22 25 23 21 21 20 20 19 17 17 16 13 9 6 3 1 2 2
15 20 30 26 28 34 35 34 34 33 36 37 36 28 27 18 20 21 20 20 19 19 19 18 15 11 10 6 5 4 6 4
15 21 22 25 27 31 33 34 33 35 35 36 35 33 25 21 19 21 23 23 21 21 21 18 15 14 10 5 3 6 6 7
13 12 19 24 30 30 32 34 33 38 36 36 38 37 30 26 23 27 28 26 25 22 19 19 18 14 6 4 4 7 11 7
12 16 22 23 27 30 32 33 31 33 38 40 37 38 32 29 26 28 30 30 26 24 23 20 16 15 8 6 11 12 8 6
14 11 19 22 27 32 35 31 30 32 38 39 39 36 31 31 27 29 31 28 28 26 27 24 18 12 10 10 8 7 9 9
6 7 16 21 26 28 33 35 36 38 34 38 39 37 32 31 29 28 30 31 33 33 27 20 13 9 6 5 7 10 13 12
8 8 17 23 24 28 34 33 32 32 34 33 34 33 31 30 28 29 31 34 31 25 19 16 9 9 6 5 9 13 16 15
5 5 13 21 27 30 32 27 29 33 32 30 27 26 25 24 25 25 26 28 25 19 16 10 8 6 6 8 12 19 20 18
4 5 9 14 15 15 20 26 28 29 27 25 23 22 21 22 22 22 23 21 17 12 7 5 7 9 8 18 21 20 19 18
6 5 5 5 8 14 19 22 23 23 21 20 19 20 22 20 20 20 18 16 10 9 9 10 7 13 16 18 20 19 20 20
4 4 3 7 9 8 10 12 13 15 16 18 19 17 15 16 15 17 12 11 10 9 9 10 13 14 18 23 18 19 22 23
9 8 6 2 4 9 11 12 12 13 18 19 18 18 19 20 18 19 20 17 6 7 15 17 18 19 21 13 18 21 24 27
8 8 9 13 9 10 12 15 18 20 24 22 22 23 25 26 22 14 5 1 11 15 14 16 18 17 19 20 17 21 24 26
8 10 15 19 19 21 23 23 25 26 26 27 29 29 21 11 7 5 5 7 9 12 14 16 20 20 16 17 19 22 24 25

GFSFLT1_925_spd_051.txt.gz
Wind_Speed
22 23 24 26 25 22 21 21 22 21 21 19 18 20 21 21 21 17 18 17 16 18 20 21 21 19 16 12 8 6 5 4
22 25 26 27 26 24 23 22 26 22 23 20 19 22 23 23 24 21 18 17 17 20 21 22 21 19 16 12 9 5 4 1
21 24 26 29 31 30 27 26 25 25 24 25 18 21 23 26 23 20 17 19 20 21 22 23 22 18 15 13 8 5 3 6
18 26 29 29 31 33 32 29 28 27 23 23 22 20 20 21 20 18 19 20 20 21 22 22 21 18 16 12 8 6 5 6
15 23 27 30 31 28 29 28 29 28 28 24 26 21 19 19 19 21 21 21 20 20 21 21 20 18 15 12 10 9 7 5
18 22 28 27 26 31 34 30 30 28 29 27 28 21 18 19 23 21 21 21 21 22 22 22 21 18 16 16 14 12 7 6
19 25 20 23 24 28 31 29 26 26 27 27 30 27 26 22 21 20 20 22 24 24 23 23 22 21 20 19 13 8 4 6
18 18 22 23 24 26 26 26 26 29 27 29 31 30 27 30 24 23 26 24 24 28 28 27 26 24 23 19 11 7 6 7
18 19 23 24 24 24 24 26 25 25 28 32 33 31 27 29 27 24 27 30 30 31 30 30 27 28 24 13 8 7 6 5
16 15 21 22 23 26 28 25 25 25 27 28 30 28 27 24 27 26 27 30 31 29 30 32 29 23 16 7 8 5 5 7
9 11 17 18 19 20 21 22 24 23 22 23 22 24 25 23 26 28 28 27 27 30 28 25 18 14 7 5 5 3 5 12
5 8 12 14 15 17 19 21 20 19 18 17 19 24 25 25 24 24 23 25 30 26 27 23 19 11 6 6 1 9 14 14
2 6 9 11 13 14 16 15 16 17 21 23 21 22 21 20 20 22 24 25 28 30 25 21 15 14 13 8 19 14 15 16
3 3 4 6 8 8 9 11 14 13 16 16 15 15 12 13 17 17 19 24 26 25 22 16 11 10 13 15 12 16 18 19
1 2 2 5 7 7 8 6 8 9 6 6 6 8 8 10 11 14 15 17 22 21 16 15 12 14 13 11 15 18 20 21
5 2 3 2 4 4 4 4 5 6 7 7 8 10 11 12 15 17 18 20 15 12 10 10 15 14 15 19 18 20 18 19
10 9 8 7 8 9 9 9 9 10 12 13 16 17 17 18 19 18 17 18 14 9 9 14 14 19 21 19 22 18 19 21
10 10 12 12 13 13 15 15 16 17 18 17 20 23 26 27 25 19 11 6 4 10 12 16 19 19 19 19 22 22 19 19
9 11 15 16 17 19 20 20 21 22 23 25 27 29 24 17 11 7 2 2 6 10 11 13 15 19 19 17 19 22 21 22

GFSFLT1_925_spd_054.txt.gz
Wind_Speed
20 23 24 23 26 30 28 23 19 16 14 14 13 14 15 15 15 17 18 17 18 18 15 16 17 15 14 10 9 7 5 4
20 24 27 28 28 29 27 25 22 19 18 17 16 16 17 17 15 13 14 14 16 17 16 16 18 15 14 16 11 9 6 5
21 24 28 30 32 31 28 27 24 22 19 18 18 18 18 18 16 18 18 15 15 17 17 19 19 16 16 16 12 8 6 5
19 25 29 31 33 33 30 28 25 24 21 19 18 15 14 17 17 16 18 16 17 17 18 18 18 18 20 15 13 11 9 7
18 24 29 32 33 32 31 28 26 24 24 21 21 20 19 18 17 15 16 19 18 18 18 18 18 19 17 16 14 13 10 7
21 25 31 32 31 31 30 28 27 26 25 25 23 23 20 18 16 16 18 18 18 18 18 21 21 18 18 17 15 14 13 11
21 27 27 29 30 30 30 29 29 28 27 27 27 25 23 20 20 18 17 17 18 19 21 25 23 19 19 18 18 18 13 10
19 19 24 27 30 29 28 29 29 28 28 28 28 27 25 24 21 21 20 19 21 25 25 21 21 19 21 24 19 13 12 12
21 20 26 26 27 28 28 28 29 28 28 28 25 24 23 23 20 18 19 20 23 19 24 19 21 22 22 13 10 11 10 11
17 20 23 23 24 25 26 24 24 25 24 22 22 21 21 19 17 17 17 20 20 23 25 24 22 18 18 20 14 10 9 9
8 11 18 19 19 19 19 20 21 21 20 19 18 18 19 18 17 18 17 23 23 25 24 24 19 19 19 16 11 10 12 16
4 6 9 12 14 15 16 16 17 17 16 16 17 16 16 16 21 21 20 22 24 23 26 25 24 22 16 11 12 12 18 16
5 6 8 10 11 12 12 12 12 12 12 12 11 9 9 12 16 16 17 19 19 18 23 26 24 22 14 14 13 15 15 15
6 7 7 9 10 10 9 9 8 7 7 7 7 7 7 7 8 10 11 14 16 20 21 21 21 16 11 13 14 15 16 18
5 6 5 7 7 7 7 8 8 8 10 10 9 8 7 7 8 9 11 12 14 15 18 19 16 13 13 14 13 17 19 19
6 7 7 9 10 10 11 11 11 11 13 13 13 12 12 12 12 11 11 11 11 13 14 10 9 13 12 13 15 22 19 20
6 8 9 11 12 13 14 14 14 15 17 16 16 16 15 15 16 16 17 14 14 10 9 8 11 11 14 18 21 18 20 20
9 10 11 14 15 15 17 17 17 18 19 18 18 18 20 20 19 17 14 12 6 4 7 9 14 18 19 17 19 20 22 23
10 11 15 16 17 19 19 19 20 21 21 21 21 20 19 16 15 13 9 6 5 7 8 8 9 11 14 17 17 19 23 26

GFSFLT1_925_spd_057.txt.gz
Wind_Speed
17 17 22 26 30 32 31 30 33 27 18 16 14 14 17 16 17 18 17 16 15 14 13 14 15 14 13 13 11 9 8 7
20 20 24 25 29 31 32 32 30 24 21 21 19 17 16 17 19 18 16 16 16 18 17 17 16 16 15 14 12 12 9 7
21 26 26 26 29 31 31 30 27 24 21 20 20 19 19 19 20 19 15 13 14 14 18 18 17 17 17 15 17 15 12 10
17 23 28 28 30 32 31 29 27 25 22 21 19 18 17 20 21 19 16 18 20 15 18 16 17 19 18 18 19 19 15 11
20 23 29 31 32 31 30 28 27 26 24 21 21 21 19 20 20 19 17 24 20 24 25 22 20 21 19 24 22 19 16 14
22 24 31 33 32 32 31 29 28 26 25 24 21 22 20 19 20 20 19 17 22 25 27 23 23 21 23 24 22 19 15 11
22 28 29 30 31 31 31 32 31 28 27 27 27 23 23 20 19 15 16 18 18 20 21 22 23 24 25 23 20 16 15 13
21 22 26 30 32 33 32 32 31 31 30 30 29 27 24 23 21 20 18 21 20 22 21 24 24 24 21 19 19 19 13 10
21 22 27 30 31 32 32 31 30 29 29 29 23 25 26 23 21 20 19 18 20 21 25 26 21 19 25 17 15 12 12 11
20 21 26 28 28 29 29 28 27 27 27 24 27 32 26 22 20 19 18 17 16 20 24 23 24 25 22 18 19 17 11 6
10 16 25 26 27 26 25 25 26 25 25 25 24 24 22 20 18 18 17 17 17 22 25 27 25 24 18 21 17 12 9 11
6 8 14 24 22 22 23 23 23 22 25 23 21 17 16 17 18 19 19 17 18 21 22 25 24 23 20 17 14 10 8 9
6 7 9 12 15 17 18 19 20 20 18 16 16 16 15 14 14 16 19 16 16 17 18 19 23 22 19 17 14 10 9 14
8 9 9 13 15 15 16 15 15 14 14 17 15 13 11 10 12 11 11 11 10 12 17 17 18 17 13 10 9 8 12 15
9 10 10 13 14 15 15 12 13 12 16 14 13 11 11 10 9 9 9 9 13 13 10 15 17 16 10 11 10 11 12 16
9 11 11 14 14 17 16 14 15 15 17 17 17 15 13 14 14 13 12 13 10 13 14 13 12 12 10 11 11 10 15 18
8 9 11 13 14 16 17 17 17 18 19 18 17 17 16 16 16 16 16 16 14 14 14 12 9 6 8 9 12 14 17 18
9 10 11 13 14 15 17 17 18 18 20 19 18 18 18 17 16 15 14 13 12 9 6 4 2 7 9 10 11 13 16 20
11 11 15 16 18 18 20 19 19 20 20 20 19 18 18 16 14 12 10 8 6 4 3 4 5 5 4 7 12 14 18 21

GFSFLT1_925_spd_060.txt.gz
Wind_Speed
24 27 23 26 25 24 25 26 30 30 29 29 29 22 26 23 22 19 19 21 20 19 17 17 18 17 18 18 14 13 9 12
17 34 31 27 28 28 28 29 29 30 30 27 24 23 23 25 21 24 23 20 21 20 22 19 19 21 20 17 17 17 17 10
16 22 28 32 32 30 30 29 31 33 31 29 26 24 22 21 23 22 24 23 22 22 22 16 18 19 16 21 21 19 19 16
18 21 24 34 37 34 32 33 35 35 29 26 24 24 23 26 25 26 23 24 24 23 22 20 15 17 18 20 24 23 22 20
19 23 27 29 35 36 35 36 35 35 31 27 29 24 22 25 27 28 27 28 27 26 22 21 21 22 25 26 30 27 24 22
19 20 31 32 32 35 37 37 37 33 33 30 26 24 26 21 24 22 26 26 24 26 30 26 25 28 24 26 27 28 27 22
21 28 29 32 33 33 36 34 33 32 35 36 28 23 21 22 24 27 27 27 24 23 23 23 23 25 25 25 19 21 20 17
21 23 26 32 35 38 36 36 33 34 32 29 31 27 20 26 20 21 23 25 26 23 20 20 22 25 26 22 16 17 13 10
20 22 28 30 33 37 37 37 35 33 31 26 23 27 33 26 25 29 23 24 25 24 22 25 26 26 25 24 22 19 15 12
20 20 28 31 33 34 36 33 33 33 33 32 31 32 30 30 31 26 24 19 22 23 26 26 25 24 23 20 20 20 18 18
9 16 23 31 34 35 35 35 31 32 30 32 38 36 35 29 25 20 17 17 16 18 19 19 21 21 19 20 21 19 16 13
1 3 17 28 30 31 35 34 32 27 27 25 27 28 29 24 12 11 13 16 17 15 17 18 18 20 21 21 16 15 14 12
5 3 5 17 24 29 30 29 26 26 25 25 26 25 19 9 12 12 15 16 14 14 15 17 20 22 21 17 16 14 11 11
6 5 2 2 5 12 20 21 21 13 17 19 21 18 17 16 15 15 15 14 10 10 13 17 19 18 17 15 13 13 10 9
8 7 7 7 7 9 14 13 20 20 25 24 23 21 19 16 13 11 10 9 11 12 13 15 15 16 15 14 13 11 8 8
8 10 8 11 14 20 19 19 21 20 22 21 21 19 16 16 15 14 14 15 15 14 15 14 14 14 12 13 9 8 8 11
6 13 15 13 19 18 17 16 16 18 21 23 22 20 19 19 17 18 17 18 17 16 15 17 17 14 9 6 6 7 10 13
3 4 12 17 22 21 18 16 18 20 22 21 20 22 22 22 21 21 21 18 17 16 16 11 7 4 3 2 5 7 9 13
6 7 13 20 21 25 24 19 19 20 22 21 22 22 22 21 20 19 17 16 13 11 8 6 5 5 6 5 3 5 8 11

GFSFLT1_925_spd_063.txt.gz
Wind_Speed
24 25 26 27 30 27 31 34 33 31 33 30 32 33 33 28 20 15 15 18 18 19 20 16 19 17 18 19 18 17 15 18
28 28 29 28 29 27 29 29 32 34 34 32 29 30 27 29 25 20 23 22 24 21 21 20 19 21 22 21 20 20 19 15
23 27 28 28 30 28 29 29 33 34 31 32 27 28 27 30 27 25 25 26 26 26 27 26 23 24 25 26 24 24 22 20
18 24 31 31 29 30 28 30 34 33 36 34 28 27 26 31 33 31 27 30 28 28 29 25 26 29 32 30 26 25 23 23
21 24 30 34 34 35 31 32 33 37 36 31 30 27 25 29 32 30 31 29 31 29 30 31 29 30 29 30 27 29 23 21
20 22 33 35 38 37 36 36 37 39 37 34 32 29 34 33 35 35 35 34 33 33 31 28 27 27 28 25 26 27 28 19
21 31 32 34 35 36 37 39 40 41 39 40 35 35 33 34 38 37 39 39 38 36 34 32 30 26 25 27 27 25 29 24
21 22 25 30 36 38 38 40 41 42 39 39 40 37 39 38 36 37 37 36 38 37 32 27 28 27 24 26 24 24 21 19
23 25 31 35 35 39 40 40 40 41 41 44 42 40 37 40 37 36 39 38 37 33 31 22 20 20 21 23 22 21 18 15
24 24 33 36 40 42 43 42 41 39 41 38 39 48 44 43 41 40 30 27 29 29 24 22 22 22 22 21 19 17 14 18
20 21 31 37 42 46 47 47 45 44 39 38 41 40 46 40 31 20 21 17 26 27 24 24 25 23 19 19 17 19 21 17
13 18 34 39 41 41 43 44 43 41 43 43 41 41 41 26 22 17 22 24 27 29 24 25 22 19 17 18 21 21 18 15
2 8 21 30 36 36 39 42 41 35 38 38 32 26 27 17 2 27 28 26 23 22 22 19 16 17 19 21 22 19 16 12
5 2 5 11 22 28 30 24 18 17 25 25 25 24 27 21 29 30 29 23 20 18 16 15 17 19 19 17 16 16 12 11
7 5 3 8 20 19 20 28 29 28 26 26 29 29 28 26 26 24 21 18 16 14 13 14 16 18 18 16 15 14 12 9
10 9 7 10 21 22 25 27 30 29 26 28 29 28 27 24 21 19 17 15 14 14 16 16 16 17 17 16 16 13 9 7
10 11 13 12 19 21 22 23 22 23 26 27 25 24 22 21 20 19 18 18 17 17 18 19 20 18 17 16 11 8 6 5
9 11 13 17 20 27 26 27 25 26 28 26 26 26 24 22 22 22 21 22 21 20 20 20 19 16 11 10 9 6 3 3
8 12 16 22 25 25 27 27 26 25 23 23 24 26 27 26 24 25 24 23 22 22 20 17 14 12 11 10 7 5 3 2

GFSFLT1_925_spd_066.txt.gz
Wind_Speed
15 18 19 16 17 22 22 24 33 39 37 35 31 29 27 27 26 25 14 17 19 20 17 16 15 20 22 20 18 20 17 16
17 19 20 22 20 21 26 31 32 38 35 33 33 32 30 33 24 20 18 22 23 23 20 18 19 24 24 22 21 21 20 16
15 18 20 27 27 28 28 31 35 36 35 31 30 34 33 35 29 23 23 24 24 20 22 24 24 25 24 24 25 23 21 20
15 19 24 26 30 32 34 36 38 38 39 36 33 34 32 31 30 34 33 24 24 25 26 26 28 26 27 27 26 26 24 21
16 20 25 28 33 34 32 35 40 40 38 35 31 30 28 33 32 33 32 27 28 30 29 29 30 29 28 29 29 29 27 23
21 22 31 34 32 33 31 32 36 38 40 37 36 29 29 28 33 34 35 35 31 35 34 31 32 33 31 30 33 32 30 27
21 29 29 30 32 33 33 34 35 37 38 38 36 32 29 27 32 35 38 39 39 37 38 37 35 33 32 33 31 30 29 30
20 21 25 29 31 34 35 35 35 38 37 37 35 33 34 30 36 40 36 37 39 40 39 38 34 31 31 26 25 26 27 29
22 25 31 33 36 39 38 38 37 39 39 39 38 38 36 39 39 40 40 40 42 40 39 39 38 35 28 25 25 26 27 26
24 22 33 36 38 43 45 42 44 44 42 40 41 41 40 35 34 37 40 39 38 35 35 36 31 22 23 22 23 25 24 21
20 21 30 36 41 43 41 44 48 50 46 44 41 37 34 34 32 32 31 30 26 21 29 29 30 27 23 23 23 23 23 23
16 17 29 35 35 35 44 43 42 42 44 43 36 36 34 32 32 21 21 15 23 30 32 31 28 29 25 24 23 23 24 21
14 16 24 28 33 35 37 38 34 28 25 25 29 28 26 23 21 23 28 28 31 29 28 27 30 29 25 25 23 24 23 22
9 10 14 23 29 32 32 30 30 31 31 28 29 28 25 23 26 30 32 31 28 29 29 31 28 25 24 23 23 23 20 18
9 7 7 12 25 29 27 31 35 37 37 30 26 30 37 42 32 33 30 29 29 27 25 25 24 22 22 22 21 20 18 16
8 9 7 7 13 19 27 35 40 38 30 24 29 26 34 32 33 32 31 29 27 26 24 21 20 21 22 23 22 21 18 13
10 10 10 8 13 17 21 24 25 26 23 24 26 28 31 33 34 32 30 28 26 24 21 21 22 23 23 21 20 18 13 11
9 14 14 16 20 27 29 31 28 25 25 27 30 31 31 32 32 31 29 26 25 25 25 26 26 23 20 20 17 16 14 10
11 11 13 18 22 21 25 27 29 30 27 27 28 29 28 30 30 30 30 29 30 30 29 26 25 24 21 19 18 15 13 10

GFSFLT1_925_spd_069.txt.gz
Wind_Speed
15 17 13 11 13 15 20 26 27 29 31 29 24 28 27 29 30 29 25 25 23 20 20 18 19 19 20 18 17 16 17 16
14 18 19 14 17 17 22 27 26 28 31 31 31 29 24 26 24 24 25 26 22 20 18 17 21 21 22 20 19 17 18 16
10 15 21 19 18 21 22 24 30 31 30 26 23 26 25 26 22 21 18 17 15 15 19 21 20 21 23 23 24 22 21 18
11 13 18 20 18 22 23 23 28 30 29 28 23 24 23 27 25 22 16 13 14 20 22 23 23 22 22 24 25 25 22 20
10 13 18 21 27 26 26 30 30 31 30 31 27 25 21 24 29 27 23 21 20 22 27 28 26 23 26 27 27 28 26 22
13 15 22 23 27 31 31 32 33 32 32 32 33 30 28 25 28 30 30 28 29 27 26 30 29 29 30 30 30 31 31 29
13 15 18 21 25 30 30 32 33 35 35 36 35 34 31 30 30 32 35 38 36 32 31 31 33 34 33 33 33 34 33 33
13 13 16 22 27 29 30 30 31 37 38 39 41 39 37 33 33 33 31 35 42 39 36 38 37 38 38 34 34 35 33 31
17 18 21 25 28 31 32 32 32 34 38 39 39 39 36 37 37 38 38 39 41 40 38 40 41 40 37 32 31 29 25 25
18 17 25 27 30 35 37 35 34 36 39 38 35 37 37 32 32 35 37 37 35 36 36 37 38 40 35 37 33 24 25 26
15 15 23 28 31 32 32 34 34 32 31 31 30 30 30 31 33 31 30 30 33 37 40 37 37 35 36 32 29 27 25 23
16 15 24 28 25 28 32 33 34 30 27 27 27 29 32 34 42 38 34 31 30 29 36 29 40 33 30 26 27 26 22 21
15 17 21 23 29 28 34 34 32 33 33 35 35 33 36 38 40 34 31 29 25 22 30 33 34 31 28 31 29 27 24 22
12 12 14 22 27 29 33 34 38 36 36 36 38 47 54 48 38 38 38 35 34 30 34 35 28 29 30 32 28 26 23 22
8 8 14 20 27 31 32 37 39 39 40 40 42 44 36 35 35 32 42 40 34 32 33 33 32 31 32 29 26 24 21 21
9 10 11 14 22 26 30 32 34 39 40 39 41 38 36 39 38 38 33 33 32 29 28 27 28 29 28 27 24 22 22 19
12 9 8 9 18 24 28 30 36 39 37 38 35 36 39 37 39 37 33 31 28 28 29 27 27 24 22 22 23 23 22 22
10 15 14 13 21 26 26 29 32 34 31 28 28 30 30 32 31 31 30 29 30 29 28 25 22 20 20 20 22 23 23 20
11 13 11 16 20 16 17 23 24 26 26 24 24 25 26 27 28 27 27 28 29 26 22 21 21 21 21 22 22 21 19 16

GFSFLT1_925_spd_072.txt.gz
Wind_Speed
15 16 12 10 10 12 16 18 21 24 23 25 23 22 25 28 44 36 35 32 32 29 24 20 20 19 17 15 17 15 13 12
16 16 13 12 13 13 18 21 24 27 27 27 26 25 26 31 39 36 34 29 25 25 24 22 21 17 15 16 18 16 14 14
11 16 14 15 15 14 15 20 23 27 28 20 21 25 25 31 31 33 30 31 29 26 25 23 20 18 17 21 20 16 14 15
13 15 18 17 16 19 19 21 24 25 25 22 19 22 20 23 24 27 26 25 30 30 26 19 17 19 20 22 24 21 17 17
11 15 18 20 20 20 22 23 26 28 29 29 26 26 22 22 32 32 33 29 25 23 21 21 18 21 22 23 24 25 21 19
14 17 22 22 24 23 26 27 29 31 33 37 32 26 27 27 27 28 27 25 22 22 21 19 18 24 25 24 25 25 25 26
12 18 23 22 26 28 27 29 29 32 33 34 36 32 32 29 28 30 30 28 27 23 20 21 21 23 27 25 27 27 29 29
15 16 17 24 27 30 29 32 33 35 34 35 35 37 38 35 35 33 33 33 32 30 27 27 26 27 29 29 29 31 32 33
16 18 20 26 31 34 34 33 32 37 36 35 36 35 35 35 35 35 35 35 35 36 36 34 31 30 29 31 32 31 28 28
15 15 23 26 30 34 35 33 33 33 34 33 32 36 37 36 36 35 37 39 41 39 36 34 31 29 27 26 27 24 30 28
9 12 19 25 27 30 35 35 34 32 35 36 36 38 39 40 38 38 38 37 34 33 33 32 32 31 28 26 25 31 37 35
10 11 17 20 23 29 31 32 31 32 33 36 36 38 39 41 41 40 38 36 34 32 32 31 34 37 35 27 26 30 33 31
7 6 12 18 23 26 31 33 33 36 40 40 43 44 44 48 51 48 45 42 37 35 35 39 36 33 35 25 24 28 29 30
7 7 9 14 22 25 29 33 36 35 36 36 37 41 45 40 36 35 31 35 39 34 37 35 32 30 23 24 26 30 32 32
6 7 10 14 21 24 27 29 33 34 34 35 35 35 45 34 35 31 31 36 35 32 39 36 33 31 26 22 27 30 30 28
8 9 12 12 17 22 26 28 33 35 35 35 37 40 38 31 30 29 32 35 39 37 38 37 30 29 28 30 30 31 27 23
9 8 7 11 18 24 26 28 32 35 35 38 34 33 33 33 31 30 32 37 38 38 38 37 30 30 29 29 29 28 25 22
9 12 14 13 23 27 27 31 29 35 34 32 32 32 32 28 27 29 31 33 36 36 33 28 28 27 24 23 24 23 24 25
12 12 10 19 22 25 27 25 31 30 28 28 28 28 26 27 28 28 29 29 29 29 29 28 27 22 21 23 23 25 24 23

GFSFLT1_925_spd_075.txt.gz
Wind_Speed
14 13 11 10 11 12 14 18 23 23 25 24 18 19 27 31 30 32 38 37 34 33 28 24 22 22 22 22 20 19 17 17
15 14 12 11 12 13 17 21 25 27 28 26 24 22 23 34 31 33 28 28 27 26 22 22 23 23 22 21 19 16 15 15
14 16 15 15 15 16 19 24 26 27 30 23 20 25 24 29 33 29 31 26 27 23 28 25 22 22 22 23 19 17 13 17
15 17 18 17 18 18 19 24 26 26 28 27 22 24 25 25 36 28 28 33 30 33 31 29 27 25 25 23 22 18 14 18
16 18 21 22 20 18 19 20 26 25 31 25 27 22 23 26 40 33 36 36 32 32 27 25 26 26 26 23 19 22 21 13
20 21 26 25 22 19 21 21 23 21 27 25 28 23 23 34 38 39 35 40 37 38 35 32 28 31 26 22 23 24 25 19
18 23 24 24 22 22 22 25 24 24 25 26 28 27 26 29 33 37 37 39 44 40 36 34 30 28 25 25 21 22 26 27
19 20 21 25 26 26 24 27 27 27 28 28 27 29 28 28 31 32 31 32 34 34 34 33 30 27 25 21 20 21 23 26
20 22 25 28 29 30 26 26 27 28 29 30 30 27 28 27 29 29 33 31 34 36 33 29 27 27 25 22 21 21 23 23
19 20 26 28 30 33 33 30 30 30 30 29 30 34 34 30 31 34 34 35 36 34 31 30 31 30 30 26 25 24 23 23
14 18 25 27 27 28 29 31 33 32 32 32 32 34 37 36 34 39 38 37 37 32 33 33 30 33 32 27 27 25 24 25
11 13 20 25 25 27 29 30 31 32 35 35 34 36 38 40 41 44 44 39 36 39 39 35 34 33 30 27 28 28 29 27
11 13 19 23 26 28 32 32 33 35 35 36 36 33 35 40 47 50 43 42 41 38 32 33 33 34 30 38 40 37 35 29
8 12 15 19 24 28 30 32 35 31 31 34 34 36 34 37 35 31 31 31 32 28 31 34 36 34 36 37 33 32 34 26
6 10 13 19 24 26 29 31 33 33 33 33 33 35 39 37 34 30 30 32 31 32 34 38 32 30 33 30 27 26 26 26
9 10 12 13 20 25 27 28 31 34 34 34 38 37 34 32 33 33 34 34 33 32 35 38 37 36 35 30 26 28 27 26
11 11 11 14 19 24 25 28 32 33 33 36 33 32 32 34 34 33 33 35 35 34 34 36 38 35 36 31 31 29 29 27
11 12 12 12 21 24 28 30 28 32 33 31 31 31 31 32 32 31 32 32 29 32 32 31 36 36 34 32 29 28 27 27
11 11 10 15 18 25 24 23 29 29 29 28 28 29 29 27 27 29 28 28 30 32 34 35 36 33 29 26 25 25 26 27

GFSFLT1_925_spd_081.txt.gz
Wind_Speed
16 15 14 12 10 10 13 14 13 12 14 14 24 26 31 35 29 36 37 34 35 31 24 28 27 26 21 16 14 14 14 14
16 16 15 12 11 13 14 15 15 17 18 21 27 20 30 31 32 37 38 32 34 30 26 23 20 20 15 18 20 17 15 13
14 17 17 15 14 14 15 15 16 18 20 20 26 32 29 28 29 30 30 32 34 29 30 26 28 23 21 22 21 17 14 14
17 16 19 17 16 16 17 16 18 18 21 22 26 28 27 25 27 31 28 32 33 28 27 27 26 21 23 24 21 18 16 14
17 17 19 20 18 18 18 19 20 19 20 24 30 29 31 29 33 33 30 33 37 33 30 28 31 24 23 23 18 17 14 13
17 19 21 21 20 21 21 21 20 21 24 27 29 26 29 26 27 28 28 30 33 35 34 33 31 27 21 20 12 15 18 15
16 20 22 22 21 21 22 24 23 22 26 26 29 31 27 29 27 27 27 31 34 30 31 29 29 23 20 18 20 24 23 20
15 19 18 23 24 23 23 25 26 26 26 28 27 32 35 32 35 31 29 28 29 36 34 34 33 30 21 21 23 23 22 23
16 19 17 24 26 26 25 26 26 28 29 30 30 29 32 35 37 35 33 33 35 40 42 39 34 33 25 24 24 23 21 22
16 18 21 25 26 28 27 27 27 29 29 30 30 31 31 33 37 39 37 34 34 37 43 39 40 42 38 29 25 27 22 25
14 16 19 26 27 27 27 26 28 29 30 31 32 33 33 31 33 39 40 41 39 39 39 39 38 40 35 35 33 26 26 26
11 14 20 26 26 28 28 28 29 30 31 31 32 34 34 32 32 35 38 38 39 40 38 38 38 37 37 37 36 31 30 29
5 10 14 23 26 28 30 30 31 30 31 32 32 31 33 36 36 34 34 35 37 40 37 37 38 38 38 38 36 34 33 32
3 9 13 17 25 28 30 31 32 32 32 32 32 32 34 35 36 35 35 35 35 36 37 37 39 39 38 38 37 35 34 34
4 7 11 15 24 27 28 30 31 31 32 32 33 34 35 34 34 35 36 36 36 36 38 38 38 37 38 38 37 37 37 37
13 7 9 13 19 25 28 29 30 31 32 34 35 34 34 34 34 36 36 38 39 39 37 38 39 38 39 39 38 39 38 35
13 15 13 12 15 22 25 28 30 31 32 34 33 32 33 34 34 35 35 37 38 37 39 39 39 39 40 42 41 35 35 33
13 13 15 11 14 20 23 28 27 30 32 33 34 33 34 35 35 35 36 36 35 38 37 37 37 38 39 40 42 41 31 29
15 13 12 14 12 17 20 24 27 29 31 32 33 33 34 33 34 36 36 35 36 36 36 35 35 35 37 40 41 40 40 33

GFSFLT1_925_spd_084.txt.gz
Wind_Speed
16 15 15 13 14 14 20 16 14 12 13 17 18 22 22 27 27 30 37 40 41 39 35 25 22 26 26 23 19 17 18 21
21 20 19 16 16 15 19 19 16 15 15 20 23 23 27 30 33 29 33 37 38 38 30 20 21 23 26 24 21 17 16 15
16 22 21 17 16 17 22 20 18 16 18 20 20 27 24 29 31 24 29 41 44 39 35 27 22 27 26 24 24 21 22 23
18 16 20 20 19 19 21 22 22 20 22 23 22 22 23 21 26 30 32 35 38 30 30 32 29 33 29 27 27 23 19 19
18 18 18 23 20 21 20 21 22 24 25 27 27 27 26 27 29 28 33 32 31 32 28 33 29 31 26 27 27 29 21 21
15 19 21 24 23 23 22 23 23 24 27 32 32 26 27 27 26 25 30 27 29 28 36 36 33 28 27 28 26 26 24 27
13 22 24 22 25 24 24 24 24 25 28 32 32 30 29 27 27 29 29 26 32 35 30 34 33 30 32 28 28 29 28 21
12 19 17 23 26 27 27 27 26 26 28 30 32 33 34 34 34 33 32 27 27 36 36 34 37 37 30 28 30 29 26 21
10 17 17 21 26 28 27 30 28 29 27 30 31 35 35 35 37 34 35 32 33 33 37 39 38 37 35 29 26 27 26 25
12 14 17 23 26 29 29 29 30 31 30 31 29 32 35 36 35 35 35 33 31 33 40 39 43 40 37 32 32 27 32 30
13 12 17 25 27 28 30 27 28 33 32 31 32 29 35 36 35 37 35 34 34 34 39 42 41 42 43 41 33 33 33 29
0 8 18 24 25 27 29 28 29 31 35 34 33 33 33 36 36 39 39 37 38 35 39 41 41 40 39 37 35 32 33 34
0 5 11 19 23 25 27 28 28 29 34 35 36 33 35 33 36 36 39 42 41 41 39 40 40 40 40 39 38 37 38 35
2 5 3 12 20 23 26 27 29 27 30 33 35 36 37 37 37 36 38 41 42 43 43 42 43 43 42 42 40 40 39 39
13 1 9 7 13 20 23 26 29 28 26 30 33 36 37 37 36 36 34 39 41 42 44 45 44 42 42 43 42 40 39 38
9 11 9 6 14 19 23 25 28 30 30 29 32 33 34 33 34 38 38 37 38 39 39 41 42 40 42 41 41 40 40 41
17 16 16 15 15 18 22 24 26 30 30 32 29 30 33 36 35 35 37 39 39 39 39 39 40 43 44 45 44 40 40 39
11 10 10 11 17 26 12 23 25 27 31 30 30 31 33 35 35 35 37 38 37 40 41 41 42 43 44 47 48 45 38 37
11 11 13 17 22 23 26 19 22 26 27 28 30 31 33 31 33 37 37 37 38 37 38 39 39 42 43 44 45 46 42 40

GFSFLT1_925_spd_087.txt.gz
Wind_Speed
20 33 34 29 25 28 26 23 21 18 16 12 11 12 11 13 20 27 29 39 41 41 44 41 42 40 35 37 34 28 28 28
23 31 35 35 31 33 29 26 22 20 20 21 20 17 16 17 19 28 35 38 41 40 38 42 36 37 37 38 32 32 31 29
14 25 29 32 32 32 30 27 24 20 22 21 19 22 20 22 23 27 33 38 41 40 41 33 31 36 36 35 33 30 32 30
17 17 24 31 33 37 33 28 24 21 22 21 20 19 23 21 19 28 31 35 39 40 36 34 34 31 34 32 33 28 27 25
19 17 18 28 29 33 30 27 25 23 24 25 25 21 20 18 23 24 28 34 40 40 41 31 32 29 29 32 33 33 30 26
20 20 26 28 35 35 32 28 23 27 27 26 28 22 22 24 21 25 27 25 28 34 37 29 30 32 32 32 33 32 30 28
22 23 28 26 31 34 35 31 27 27 29 27 29 27 24 24 24 25 25 29 33 30 33 35 29 36 38 34 31 31 29 26
18 19 17 25 29 31 34 31 27 27 31 32 29 29 29 31 31 29 28 27 31 34 33 37 37 34 37 35 34 33 34 27
20 20 18 26 29 32 31 32 28 27 31 33 32 30 30 30 34 30 31 29 33 32 34 38 40 38 35 35 35 35 33 29
19 19 19 27 31 33 34 31 29 30 28 31 31 33 31 31 33 31 32 28 30 32 35 35 36 37 38 33 36 33 33 30
19 19 18 28 32 34 35 34 32 33 30 30 30 32 34 33 33 33 33 34 31 32 35 36 37 38 38 40 37 34 33 33
8 16 20 26 29 32 32 34 32 32 34 29 30 29 34 34 33 35 36 37 36 35 41 41 35 38 39 38 37 37 37 38
7 13 14 22 26 28 31 31 31 34 34 33 32 31 32 34 35 36 36 37 38 38 39 42 41 40 41 42 39 36 37 35
9 7 13 14 23 26 30 31 33 31 36 34 34 34 33 34 36 35 37 39 40 41 40 42 42 42 42 43 41 41 39 38
16 16 6 2 22 26 28 30 33 34 34 36 35 38 38 36 33 37 36 38 39 42 44 42 42 44 44 44 43 43 43 42
13 11 7 8 15 7 20 29 34 37 34 34 37 38 38 38 39 36 36 37 40 40 40 42 43 42 45 45 44 43 42 42
13 13 14 11 14 17 20 16 29 35 34 34 33 36 38 39 39 38 39 39 38 39 42 42 43 44 46 47 46 42 42 41
9 11 12 15 19 21 20 21 10 29 32 32 33 32 37 38 36 37 40 40 38 38 38 40 43 44 47 50 51 46 40 42
7 9 12 21 23 26 23 22 18 23 15 24 31 33 32 30 34 37 35 35 38 39 38 39 38 42 44 48 49 49 46 44

GFSFLT1_925_spd_090.txt.gz
Wind_Speed
22 31 34 35 36 34 33 31 27 24 22 18 15 12 13 18 20 21 36 41 40 40 37 42 39 40 37 35 35 36 29 28
22 30 31 33 33 35 35 34 30 27 22 17 13 12 14 17 19 24 26 27 38 37 36 36 44 40 36 36 37 35 30 28
13 25 28 33 34 35 36 35 32 29 22 20 15 16 13 16 16 19 24 29 39 38 42 42 33 34 36 35 34 29 26 32
16 16 26 28 31 36 37 35 32 28 23 20 15 15 12 13 13 18 25 28 35 39 42 41 38 35 40 42 40 33 25 30
19 19 19 30 30 35 37 36 33 29 26 25 24 17 13 12 17 16 19 24 30 38 37 41 36 32 34 36 41 36 31 28
20 23 29 31 34 35 37 36 33 29 27 27 27 20 17 19 17 21 22 21 24 27 35 42 42 38 36 40 40 38 40 32
23 25 27 25 28 33 36 35 33 30 29 29 29 25 21 23 20 21 22 22 26 29 38 45 38 35 31 35 32 36 40 37
18 20 17 25 29 30 32 33 30 32 31 30 29 28 27 29 29 25 23 23 25 32 35 35 40 36 35 36 36 33 29 32
21 22 20 27 30 31 31 32 30 31 31 31 30 28 30 30 32 30 29 29 27 33 37 34 31 34 36 36 37 36 33 32
18 18 18 27 29 33 34 31 30 32 28 30 31 30 29 30 32 31 33 29 28 35 33 35 35 31 34 39 35 34 33 35
16 17 18 28 29 30 30 32 32 33 28 29 30 29 33 30 30 35 33 34 34 34 37 37 35 37 36 34 35 34 36 37
13 14 17 23 25 27 28 27 28 30 31 29 28 30 31 33 33 35 37 37 37 36 39 39 38 37 40 39 38 37 38 39
10 12 12 19 23 24 28 28 29 32 32 31 29 30 31 31 34 36 35 38 39 40 39 40 41 40 40 39 39 34 40 39
10 8 6 7 15 23 27 29 29 30 32 31 32 31 32 31 32 35 36 37 37 39 39 42 41 40 40 41 39 40 38 40
19 15 8 7 10 9 10 13 19 27 30 32 32 34 31 33 32 36 38 39 39 39 39 38 41 40 41 42 42 41 39 39
16 14 12 12 17 14 13 22 22 21 26 29 32 34 36 34 33 34 35 37 38 37 37 39 39 40 42 42 41 40 40 39
16 15 14 12 15 15 17 6 15 23 23 29 28 31 32 35 35 34 36 36 35 36 39 40 40 41 44 46 44 41 41 41
15 15 12 15 17 18 21 22 21 14 26 17 19 23 25 28 27 31 34 36 36 37 38 38 40 44 44 45 47 47 39 41
15 11 14 17 19 23 23 24 25 24 21 15 8 9 22 29 30 35 37 34 37 37 39 40 39 42 44 48 48 48 47 46

GFSFLT1_925_spd_093.txt.gz
Wind_Speed
23 30 31 33 36 36 33 31 31 28 25 21 20 18 16 17 17 23 29 36 37 36 33 36 36 37 35 37 38 32 29 28
24 27 28 31 32 34 35 34 33 31 27 23 18 19 17 16 18 21 17 34 39 37 33 36 37 34 38 37 31 35 29 29
12 22 25 32 33 32 32 35 34 29 27 22 14 17 16 18 19 20 21 24 34 38 32 36 38 32 28 31 34 27 26 33
13 16 24 27 30 33 35 35 36 28 29 23 14 14 10 14 16 18 20 22 26 31 35 37 39 34 34 34 33 29 27 28
13 15 15 28 30 30 34 32 33 26 30 26 23 17 10 13 16 15 17 21 26 27 32 38 40 44 33 33 34 30 27 24
15 18 26 31 30 32 33 29 31 26 32 28 24 20 16 15 14 12 14 18 24 27 32 33 43 39 38 42 31 35 31 27
15 20 21 23 26 28 30 29 28 26 32 28 26 24 19 17 17 18 16 17 19 28 32 31 35 40 36 34 31 32 35 31
14 16 17 22 29 30 29 29 27 29 32 30 27 25 22 23 22 20 20 21 20 25 28 35 33 33 36 31 37 39 39 43
16 20 19 25 30 31 30 29 27 29 31 31 28 24 25 24 26 24 24 24 23 28 30 30 30 35 35 37 37 38 40 38
18 19 18 25 29 33 34 31 26 28 27 31 28 27 27 26 25 27 27 26 27 28 31 33 32 34 39 37 39 33 36 30
14 16 17 25 25 27 27 30 29 27 25 28 30 30 28 27 27 27 28 27 27 32 34 33 36 36 33 35 32 36 35 33
5 10 12 20 21 24 26 27 28 27 26 24 28 31 31 29 29 31 30 30 30 31 36 38 37 36 35 36 33 37 36 36
8 7 9 13 16 18 20 23 25 26 27 23 24 30 30 29 29 30 32 32 32 35 35 39 38 35 38 37 35 35 40 39
12 11 9 9 12 12 14 15 15 17 22 20 20 25 28 28 28 29 29 31 33 35 37 38 37 37 37 39 40 39 38 40
15 13 10 8 12 14 14 15 17 19 22 22 21 24 29 30 30 29 29 30 32 34 36 37 38 38 40 41 40 39 38 40
14 12 11 11 17 14 4 14 20 23 26 26 21 21 21 25 26 30 30 30 31 32 34 36 37 40 42 40 39 38 38 37
15 14 16 15 18 21 18 19 9 18 23 21 18 20 23 23 25 28 30 32 34 36 36 36 38 39 40 43 41 38 38 39
14 14 14 18 20 18 17 17 21 17 4 2 10 18 23 26 27 27 26 27 30 34 35 37 40 42 40 42 45 45 37 38
10 10 16 21 20 21 20 22 22 22 22 17 14 11 8 8 22 28 28 27 30 30 32 35 36 40 40 43 45 47 44 43

GFSFLT1_925_spd_096.txt.gz
Wind_Speed
22 29 33 35 36 34 34 33 29 29 26 23 20 20 20 20 21 20 25 29 30 27 26 30 32 30 30 31 37 35 36 33
21 30 28 29 31 34 36 36 32 31 29 25 21 22 21 20 19 19 25 27 32 33 31 31 32 30 33 36 34 35 28 30
9 16 25 32 34 33 35 33 33 32 31 24 18 21 21 21 19 19 21 19 27 34 31 35 36 31 31 37 30 26 21 30
8 10 21 24 30 37 38 33 33 30 28 25 17 16 14 18 19 19 20 21 21 34 34 38 39 37 35 37 34 36 24 29
8 11 12 25 29 31 32 31 33 28 30 26 23 17 11 17 19 19 19 20 18 24 25 36 38 37 37 38 38 31 25 28
10 14 21 23 22 30 31 30 32 31 33 31 28 21 17 13 15 14 17 18 21 23 25 29 34 38 35 36 39 35 32 30
11 14 16 19 23 24 29 32 31 31 31 33 30 24 18 15 14 13 13 15 19 21 29 31 34 38 40 38 36 38 37 32
9 12 14 20 29 30 30 32 31 31 31 33 30 26 22 17 17 17 17 15 17 24 24 27 32 34 37 42 37 38 34 36
9 14 16 21 29 32 32 32 29 30 30 32 29 25 23 20 21 20 20 17 15 17 22 27 31 36 35 36 36 37 36 34
11 11 14 21 28 33 34 31 28 29 27 29 29 25 24 23 22 20 20 20 18 18 21 25 28 33 32 33 34 38 39 37
8 9 12 18 23 27 27 28 28 27 27 25 29 26 23 20 21 24 22 21 20 24 24 25 27 29 29 32 28 32 37 37
6 8 9 15 20 22 23 25 24 24 22 22 22 24 23 20 20 21 22 22 22 22 26 27 27 29 31 26 26 28 26 29
8 10 11 13 15 17 17 19 20 19 19 19 21 22 22 22 20 19 21 20 21 21 25 28 29 30 31 34 36 35 33 32
11 11 10 10 14 16 17 18 18 18 19 20 20 18 22 23 23 21 20 21 22 24 25 28 31 32 32 34 35 34 36 39
16 16 14 9 10 15 19 18 16 18 19 17 19 20 21 25 23 22 21 21 22 23 25 27 29 33 35 37 35 36 36 38
18 16 15 14 19 19 6 8 13 15 18 17 18 19 20 23 24 24 23 23 24 24 25 29 31 33 36 35 35 35 37 38
17 17 17 15 23 19 19 18 11 10 14 15 17 18 19 20 23 25 26 25 25 25 27 29 32 34 35 36 36 34 35 37
17 17 15 20 24 23 17 24 22 26 24 19 12 3 15 21 22 23 26 28 28 29 30 31 32 34 35 37 37 39 35 37
15 12 19 23 22 20 23 24 22 22 22 19 17 14 11 9 2 11 20 25 29 30 31 31 33 36 37 37 37 40 41 40

GFSFLT1_925_spd_099.txt.gz
Wind_Speed
17 15 19 23 25 26 27 28 30 31 28 25 22 22 22 19 20 20 20 22 22 23 20 23 26 29 31 30 33 30 29 22
19 20 18 18 22 26 29 30 32 32 31 29 27 25 24 20 18 20 21 25 26 26 23 23 28 30 31 34 34 32 25 21
16 18 15 19 24 28 30 32 33 31 30 27 19 24 24 23 20 19 20 22 27 34 31 28 29 28 27 34 33 28 23 32
18 13 18 18 25 32 35 36 34 31 30 27 22 19 16 21 21 20 21 20 25 28 32 33 35 35 33 36 36 33 23 28
18 16 13 22 28 25 29 32 33 34 35 31 27 21 15 21 18 19 17 21 20 21 28 34 36 37 36 35 38 34 31 29
20 20 23 22 22 27 29 31 30 32 36 31 27 19 16 13 15 15 15 17 19 15 20 35 34 36 38 40 33 34 31 32
18 21 17 17 21 26 30 32 31 31 33 33 31 22 18 14 13 14 13 15 17 17 23 28 33 38 37 39 43 36 30 30
13 14 13 18 24 29 31 34 32 32 31 32 28 20 18 15 14 14 11 14 17 19 26 30 32 30 32 36 40 42 39 35
15 11 13 19 25 29 30 32 31 31 31 30 24 20 17 14 14 13 12 14 14 18 18 26 29 31 31 35 38 43 35 34
18 13 13 18 25 29 29 29 28 29 29 26 22 21 18 15 14 12 12 13 12 13 18 24 24 26 32 33 34 31 33 35
13 11 9 17 19 21 23 25 25 25 25 26 21 20 18 16 14 15 14 15 12 12 13 15 18 24 27 28 26 30 30 29
11 9 7 12 15 19 19 22 22 24 24 23 20 19 19 18 16 16 16 16 16 15 15 15 17 21 23 26 26 25 28 29
10 7 7 10 13 16 18 21 21 22 21 19 18 18 17 18 17 17 18 18 19 17 19 20 18 20 22 20 22 24 27 28
15 13 7 7 12 13 16 17 20 22 21 18 15 15 16 16 17 19 19 18 19 19 17 23 24 23 25 25 27 25 28 28
15 16 15 15 10 14 16 17 19 20 20 17 15 14 14 16 15 17 19 19 19 20 20 21 22 24 27 28 30 29 27 28
16 16 15 15 21 23 21 11 12 13 15 13 12 11 11 12 14 16 18 18 18 19 19 19 19 21 22 23 27 31 32 32
17 16 17 16 20 21 25 27 18 8 8 7 7 11 12 12 13 13 14 17 17 17 19 20 20 22 25 28 26 25 29 29
15 15 15 20 21 23 26 28 28 28 23 17 16 12 7 1 12 14 17 17 16 17 17 17 19 20 25 27 30 29 26 29
12 12 19 23 22 23 26 30 23 26 26 24 18 13 12 10 9 9 4 3 15 21 22 22 22 10 23 30 30 31 33 31

GFSFLT1_925_spd_102.txt.gz
Wind_Speed
17 16 15 15 17 20 23 27 26 25 25 20 18 17 16 16 17 16 17 18 18 17 13 14 23 28 30 32 36 35 30 21
24 22 18 16 16 21 25 27 28 27 26 24 21 18 21 16 19 15 17 17 18 18 16 17 23 28 28 30 31 33 28 22
21 26 24 20 19 21 24 29 31 31 29 26 19 19 17 17 17 15 16 18 21 21 25 22 23 23 29 34 27 27 20 25
22 22 28 25 22 23 27 30 31 31 29 25 19 18 12 14 16 19 19 17 22 28 25 26 26 26 28 30 33 32 20 28
19 20 21 26 25 23 25 27 31 31 31 29 28 25 19 20 19 16 19 17 18 26 30 27 31 29 29 30 31 33 26 26
17 19 22 27 26 21 23 26 31 32 34 30 28 22 18 15 17 16 18 19 20 19 24 35 33 34 33 34 29 30 30 28
12 14 20 24 26 20 23 28 33 34 34 32 29 25 19 16 18 18 17 17 19 20 19 28 33 36 34 36 36 34 29 30
13 13 11 19 22 24 25 29 33 34 34 34 29 25 20 17 17 16 16 15 17 19 20 22 32 33 34 35 36 39 36 32
18 15 10 14 18 22 26 30 31 32 32 32 27 24 19 16 16 14 14 13 14 14 20 24 23 31 31 32 34 36 34 31
22 16 11 11 15 19 22 25 27 27 29 28 27 23 19 17 15 14 12 12 10 12 15 23 26 26 25 26 28 32 32 37
20 17 13 8 12 16 19 20 22 23 25 25 25 23 20 17 16 15 15 13 11 11 15 15 19 27 25 23 25 29 31 31
18 19 13 2 8 14 17 19 21 24 23 23 24 22 20 18 16 16 15 15 13 12 12 12 17 21 24 26 25 25 27 25
18 17 16 5 5 12 15 18 18 20 22 22 21 22 20 18 16 16 16 16 15 14 13 12 13 14 16 18 19 19 23 24
19 18 14 11 8 10 14 16 18 19 23 21 19 19 19 17 16 16 16 16 16 15 14 15 16 16 17 17 18 18 20 24
18 17 15 16 20 6 14 16 19 21 20 18 17 17 16 15 15 15 15 15 15 17 16 15 17 16 16 16 17 18 19 20
17 17 15 15 20 19 24 9 17 16 16 15 15 13 13 13 12 13 13 14 14 15 16 16 16 17 18 20 21 21 22 22
16 17 17 16 21 21 20 23 26 22 19 15 10 13 12 12 11 11 11 12 13 14 15 16 16 16 19 24 22 22 24 27
12 13 16 21 21 21 20 24 23 27 23 21 20 15 12 10 8 8 9 11 12 13 13 14 13 13 17 21 27 25 22 24
13 12 20 24 23 23 23 26 22 25 25 23 19 14 15 17 14 10 7 3 5 7 8 11 10 9 17 19 22 27 30 23

GFSFLT1_925_spd_105.txt.gz
Wind_Speed
18 23 26 26 23 21 24 26 26 26 24 22 20 17 15 16 16 16 17 18 21 19 16 15 15 18 20 27 27 30 32 30
21 23 24 23 19 20 23 27 28 27 27 27 25 21 19 18 15 16 17 17 18 21 16 17 17 19 23 29 28 31 23 31
20 23 24 25 23 21 25 27 28 30 27 27 24 19 19 18 17 18 17 17 18 17 16 15 17 18 21 27 24 23 16 28
18 19 25 27 25 24 24 27 30 30 27 25 21 19 14 19 18 18 20 19 19 17 18 16 17 19 24 26 28 22 22 21
13 16 20 26 28 26 27 27 29 31 29 28 29 26 21 20 20 18 20 19 19 18 19 22 19 21 24 26 28 25 24 21
11 14 21 26 29 28 27 28 30 31 32 31 30 25 22 18 20 18 20 20 18 18 22 21 22 24 25 26 27 24 27 26
12 13 16 23 27 31 28 28 30 33 33 35 31 28 24 22 21 18 19 19 20 19 22 27 29 28 26 29 28 28 26 25
14 18 17 17 23 28 26 30 32 33 34 35 32 29 25 22 21 20 19 19 19 20 20 22 29 33 31 31 32 31 32 28
15 18 20 17 20 26 30 29 30 33 33 34 32 29 25 22 21 19 18 19 19 18 20 21 23 31 28 31 32 36 31 31
17 18 19 27 19 23 23 24 28 30 29 30 29 27 25 22 21 17 17 15 18 19 18 21 25 26 29 31 31 31 34 32
16 17 20 29 28 14 16 22 24 22 23 26 24 26 25 21 20 19 16 15 16 17 16 16 18 24 27 27 26 28 29 30
14 16 25 31 36 7 13 16 18 23 24 23 23 24 23 21 19 19 17 18 16 15 16 13 22 23 23 24 23 24 27 26
14 16 23 29 34 9 8 10 14 21 23 24 25 21 23 22 20 19 18 20 17 15 15 15 15 17 21 23 23 24 24 25
16 18 19 23 29 26 6 8 14 19 21 21 21 20 20 19 19 19 19 18 18 16 15 16 15 15 16 19 21 20 21 21
18 17 18 27 29 26 18 9 12 18 20 20 15 17 18 18 18 18 20 18 17 16 15 14 14 14 15 16 16 18 18 18
20 18 17 27 27 27 26 23 6 16 15 13 15 15 16 15 15 17 17 17 16 15 14 12 13 14 13 16 17 18 16 18
18 18 19 21 25 26 25 25 23 22 25 20 11 14 12 11 12 13 14 14 14 14 13 13 12 11 13 16 14 13 14 14
14 15 13 19 25 26 26 25 24 27 25 22 22 18 15 11 10 12 12 12 12 8 8 11 10 8 12 15 19 17 12 15
12 13 20 20 26 26 25 28 27 28 30 27 23 21 20 16 15 14 11 11 16 13 8 10 8 2 7 12 14 17 20 17

GFSFLT1_925_spd_111.txt.gz
Wind_Speed
23 32 34 34 31 26 43 43 47 47 42 38 33 28 29 30 28 27 29 25 26 24 24 25 25 23 25 25 24 26 23 23
25 30 36 35 33 20 38 38 37 36 35 33 34 33 34 32 30 26 29 28 27 27 25 23 24 26 25 25 26 25 23 21
3 2 9 15 22 22 33 38 40 39 34 33 30 34 32 30 28 27 27 28 26 28 27 26 26 26 24 24 24 20 21 24
7 6 4 8 16 23 28 36 38 35 32 29 24 26 25 27 28 28 30 28 26 27 29 28 27 26 26 25 25 25 18 24
9 11 12 17 14 16 9 41 41 41 40 36 35 30 21 25 28 32 29 26 27 28 30 29 28 27 25 26 26 26 21 17
13 13 17 23 28 29 28 9 33 38 44 42 39 30 31 27 26 30 30 32 24 31 30 27 27 25 23 24 25 27 26 17
15 18 25 27 30 31 29 28 11 33 41 42 39 35 30 26 30 30 32 31 33 28 29 28 25 23 24 24 24 26 27 24
17 19 17 27 30 31 30 27 29 18 42 41 40 38 36 35 35 29 28 31 32 33 30 29 27 24 24 24 25 28 26 25
18 19 20 26 30 31 32 33 31 29 33 41 37 35 33 34 34 32 33 31 28 33 33 30 29 25 23 25 26 26 29 28
18 17 20 23 26 29 31 34 33 30 24 40 35 35 34 31 35 35 35 33 32 31 33 31 27 26 24 26 26 29 28 32
13 12 20 24 26 28 30 30 32 30 23 37 37 38 39 35 32 35 34 33 32 30 32 33 30 28 28 28 29 27 29 30
15 16 25 25 27 28 31 34 35 32 8 31 36 34 36 33 29 36 33 32 32 30 31 31 31 30 29 30 27 28 31 27
17 18 25 27 26 28 30 31 34 33 23 6 27 31 30 32 28 29 29 31 31 30 28 25 24 27 29 30 30 27 27 27
16 17 17 25 26 26 30 33 33 33 22 14 6 14 26 26 29 26 28 30 27 24 24 24 22 26 29 31 29 28 27 26
16 15 16 24 27 27 28 31 33 34 26 17 14 9 5 25 28 29 28 25 24 20 19 21 22 21 24 26 26 27 25 25
14 15 15 24 28 28 28 30 32 31 27 29 25 17 4 19 25 28 26 23 19 18 18 18 19 19 19 22 25 25 24 21
15 15 18 22 26 28 26 30 34 32 31 29 29 27 22 9 25 28 27 24 22 21 17 18 17 15 17 18 19 21 20 19
13 14 18 23 26 25 27 25 34 32 30 29 31 34 32 30 21 18 17 20 23 20 22 21 17 13 17 18 18 18 18 17
10 15 22 24 26 27 24 30 27 31 30 30 32 34 33 33 31 28 18 18 17 19 17 18 15 9 16 20 21 16 19 15

GFSFLT1_925_spd_114.txt.gz
Wind_Speed
16 23 29 30 30 26 38 44 46 45 36 35 35 38 36 34 33 31 30 29 27 28 28 27 28 28 28 28 28 26 27 26
20 32 31 33 33 26 33 41 41 36 33 31 30 39 41 37 37 34 33 32 30 28 29 28 30 29 28 28 29 27 24 23
10 19 24 16 13 18 31 40 41 43 39 39 30 29 32 35 35 32 32 34 32 31 31 31 32 30 29 30 30 20 20 25
9 14 19 22 28 23 15 31 43 42 40 31 30 29 20 26 33 35 35 35 35 34 33 33 32 32 30 28 30 28 18 22
11 11 16 22 24 24 22 5 19 31 39 35 35 33 24 32 32 38 38 34 34 34 33 33 33 32 31 31 29 28 23 18
14 13 16 18 23 24 23 19 5 17 24 32 41 32 32 30 32 37 38 36 34 34 33 34 34 33 31 31 29 28 29 20
13 15 17 21 22 23 25 24 18 9 13 28 28 26 24 26 29 31 35 37 36 34 33 33 34 34 32 30 27 29 28 25
17 20 18 26 29 28 23 25 26 20 14 20 29 35 37 38 35 33 31 31 34 33 34 35 36 33 29 26 26 26 28 26
17 18 18 24 27 29 29 27 21 23 21 19 31 32 37 37 36 30 33 34 35 38 34 35 34 31 26 25 25 24 26 27
17 17 22 25 27 27 27 27 28 25 21 25 30 31 34 34 37 36 34 34 35 38 38 35 32 30 27 26 26 26 27 27
20 20 26 30 30 29 28 26 25 27 28 21 28 36 39 38 37 36 35 34 32 34 35 36 33 33 29 28 26 26 25 27
19 18 27 27 28 28 29 29 29 31 32 28 13 29 30 38 39 38 38 35 34 32 35 34 33 31 29 29 28 27 26 28
17 17 23 25 28 30 31 31 32 32 33 30 20 10 23 32 33 37 36 36 35 33 34 33 31 28 32 30 30 29 30 27
18 15 18 24 28 31 31 31 31 32 33 30 25 17 2 16 31 33 32 33 33 32 31 30 27 28 29 30 30 31 31 31
16 16 17 25 28 30 31 31 31 33 32 31 29 27 17 4 20 28 31 32 33 33 29 27 26 25 25 29 30 30 29 28
17 17 16 25 29 30 33 34 32 32 32 32 30 30 22 10 9 24 29 31 33 31 28 25 22 21 21 27 27 27 25 25
16 16 19 22 27 29 30 32 34 31 32 32 32 30 31 21 15 2 23 31 30 27 25 23 22 20 23 23 22 21 23 25
14 14 19 24 28 30 31 32 32 32 31 34 32 34 30 32 25 23 17 12 16 19 19 19 20 18 21 21 19 20 23 22
12 18 22 24 26 28 28 31 33 34 34 31 34 31 30 27 27 33 29 25 21 19 16 13 9 5 15 21 20 20 19 16

GFSFLT1_925_spd_117.txt.gz
Wind_Speed
22 29 31 36 40 42 44 42 42 43 35 31 33 32 33 34 35 35 33 33 31 30 30 29 29 29 29 29 29 26 25 23
22 29 28 21 24 35 37 38 40 34 31 33 30 32 36 37 36 36 35 34 34 31 30 29 30 31 31 29 28 26 24 24
7 17 15 12 10 3 27 34 40 42 36 39 30 32 32 37 35 34 33 35 35 34 31 30 31 31 30 30 30 18 19 25
11 15 19 22 22 17 1 28 31 34 35 29 23 24 20 24 30 35 37 36 36 34 32 30 32 33 31 30 29 25 18 22
14 14 15 20 21 20 20 9 12 20 25 23 24 28 22 31 36 41 43 39 37 36 34 33 33 34 34 32 31 28 22 17
14 12 14 18 21 24 24 18 12 7 16 26 29 23 20 11 19 31 39 41 40 40 37 35 35 35 34 30 28 30 30 22
14 16 16 20 23 26 25 24 20 10 1 8 24 27 23 18 21 24 29 33 38 39 40 39 37 37 36 34 32 29 31 27
14 13 13 19 22 25 24 24 23 19 12 8 11 25 31 32 26 29 25 29 33 41 41 40 38 37 36 33 32 30 29 26
16 16 18 21 22 24 25 25 25 24 20 16 13 18 25 33 35 35 35 33 39 39 36 38 38 36 34 33 32 30 28 27
17 18 22 24 26 26 25 26 24 27 27 22 20 18 24 33 35 34 34 34 35 39 39 39 39 36 33 33 29 25 26 26
16 17 23 26 27 26 28 28 25 25 29 27 25 25 23 34 34 37 38 37 36 38 37 36 35 36 33 32 28 26 25 25
15 15 24 27 30 32 31 33 31 31 31 30 27 25 17 28 30 36 38 34 37 38 38 34 33 35 34 33 28 26 26 25
15 17 24 26 28 30 32 32 31 30 28 28 28 27 18 19 29 34 31 33 36 38 36 33 32 31 33 32 29 28 27 27
18 16 19 26 30 32 34 33 31 30 29 29 29 31 28 18 10 24 30 32 34 33 33 32 31 32 32 29 32 30 30 29
18 17 18 26 27 31 31 32 33 31 30 29 32 32 31 25 15 11 25 30 30 32 32 32 28 29 30 29 30 29 29 29
18 15 13 24 31 30 30 31 32 33 31 34 34 31 32 29 22 15 7 22 29 32 31 31 31 30 30 29 27 28 28 28
16 16 20 23 25 28 29 30 30 33 36 33 33 35 35 33 33 24 18 14 4 24 27 27 27 26 25 25 24 26 28 28
14 14 19 22 24 24 26 27 29 31 32 35 38 35 34 34 32 35 34 28 20 15 15 15 14 11 21 22 22 25 27 26
12 17 20 23 24 26 23 30 29 30 31 33 37 36 32 33 35 31 33 34 32 31 25 16 10 6 12 21 21 22 22 20

GFSFLT1_925_spd_120.txt.gz
Wind_Speed
23 28 30 38 35 38 39 41 41 42 35 31 35 36 36 35 36 36 35 33 32 30 30 29 28 29 29 28 27 24 23 22
2 7 6 4 13 17 24 28 36 35 31 30 27 31 34 36 37 36 36 34 33 32 31 29 29 31 30 27 26 24 22 21
9 13 14 16 12 10 8 20 27 32 31 33 25 27 24 28 33 34 35 33 32 33 33 31 31 31 30 27 28 20 20 23
10 12 14 19 19 16 14 10 24 34 33 25 18 18 18 24 28 34 37 37 36 37 36 34 31 32 30 31 28 26 17 21
12 13 11 18 21 16 13 10 4 20 28 26 27 23 18 23 27 31 40 44 43 41 37 36 35 33 32 31 29 28 22 17
14 13 18 23 23 18 17 14 9 5 16 23 28 23 25 22 29 31 32 26 32 34 36 35 34 33 29 33 32 31 30 21
15 19 22 23 22 21 22 18 15 10 7 7 14 23 25 26 22 27 28 33 33 35 37 37 37 36 34 31 31 33 32 31
15 16 15 22 23 24 24 22 22 19 12 6 1 5 12 29 30 25 24 23 28 30 30 37 39 39 35 33 32 32 31 29
15 16 17 20 23 24 24 21 19 22 20 15 10 10 14 16 25 26 29 33 32 25 35 40 36 37 36 34 35 33 34 32
15 16 20 20 23 23 22 23 24 25 23 18 15 15 15 20 25 23 27 34 35 33 40 34 34 34 36 37 36 36 35 32
14 14 20 21 23 23 26 26 25 26 27 24 20 20 18 21 26 26 31 34 34 37 39 37 35 34 35 37 36 35 34 31
12 13 20 23 24 27 28 29 29 31 29 27 27 27 24 19 16 24 26 30 32 37 35 33 36 34 37 36 36 35 34 30
13 16 26 26 26 30 33 33 30 29 29 29 29 30 30 26 18 14 23 26 30 35 35 31 30 35 35 36 36 35 35 32
13 14 18 24 27 30 31 33 34 33 32 30 31 33 32 31 28 20 11 22 26 28 29 28 29 34 35 35 36 36 35 33
16 17 19 29 32 34 33 33 33 32 33 33 34 34 34 32 31 26 19 9 16 23 25 26 27 30 33 33 32 33 32 32
17 16 16 24 28 31 30 30 32 31 32 34 34 31 32 33 32 34 28 21 14 7 20 25 25 28 30 30 31 29 29 30
17 17 22 26 28 27 32 32 31 31 30 30 32 34 34 34 34 34 33 33 28 20 15 12 0 14 25 30 28 29 29 28
16 16 21 26 27 26 27 30 29 29 30 32 33 32 32 34 34 34 37 35 34 33 30 23 20 21 6 25 28 27 26 26
14 19 23 24 23 26 23 33 31 31 32 31 33 32 31 31 35 36 35 33 34 32 36 32 32 32 24 6 15 21 21 19

GFSFLT1_925_spd_123.txt.gz
Wind_Speed
26 26 28 26 23 27 32 33 38 37 29 25 23 23 24 26 31 30 30 33 32 29 27 27 27 27 27 26 22 24 18 16
17 9 9 7 11 18 25 25 26 27 27 28 26 30 28 29 27 27 30 29 32 32 30 28 28 29 30 29 26 23 21 21
9 10 10 9 5 1 12 18 25 28 29 30 24 25 24 28 27 27 31 33 36 34 36 34 33 29 26 28 28 18 18 23
9 12 14 12 12 10 2 12 19 24 27 24 21 14 18 23 27 28 30 28 32 35 35 33 36 34 29 29 29 22 15 21
12 12 14 17 16 12 9 6 7 14 23 23 26 24 21 24 25 26 25 29 29 33 37 33 30 32 29 29 29 27 19 16
13 13 16 18 18 15 12 11 13 7 12 17 22 25 22 20 23 23 30 29 33 33 32 34 34 32 29 31 29 29 29 20
12 17 17 20 21 20 18 17 17 14 10 6 7 16 19 17 19 21 22 25 30 35 36 36 33 30 29 32 29 27 28 28
13 15 16 21 24 24 21 23 22 18 14 10 7 3 4 7 18 20 20 22 27 34 38 37 38 33 38 33 32 29 30 29
13 15 18 21 25 27 26 25 22 19 19 17 14 11 9 9 11 12 19 26 29 26 35 36 37 40 33 34 33 32 31 31
16 18 20 22 24 26 27 24 22 20 21 18 21 13 13 14 17 20 16 25 25 25 32 34 36 33 32 35 34 35 33 33
15 15 22 24 25 25 27 26 24 26 33 30 20 22 19 17 16 17 21 22 26 22 26 26 25 26 31 31 33 33 32 32
16 14 24 26 26 27 27 27 30 30 29 21 18 21 19 18 16 16 15 18 24 26 25 24 24 25 28 33 33 32 33 32
13 20 25 29 30 29 30 32 34 30 28 28 29 29 29 27 26 23 19 11 18 22 24 24 24 24 27 33 33 31 33 33
15 21 24 24 22 26 26 28 27 25 27 29 31 31 29 29 30 30 26 20 10 13 19 22 26 27 29 34 36 35 36 35
18 16 22 28 30 33 31 27 28 29 31 32 32 32 32 32 31 32 32 30 25 16 9 14 22 22 27 30 31 32 34 34
20 19 21 27 27 29 30 32 33 29 31 33 33 32 31 33 35 35 33 35 32 29 24 18 12 6 7 13 23 32 30 30
18 18 25 25 27 27 32 32 30 28 31 31 31 31 33 33 34 35 34 36 35 37 35 32 31 28 25 12 18 25 34 32
15 15 20 22 24 25 28 29 28 32 32 32 32 32 33 35 34 33 34 33 34 36 36 34 34 39 32 19 15 19 20 30
15 19 21 22 23 26 26 31 33 32 31 30 32 32 31 32 32 32 33 33 33 34 35 36 34 44 37 28 16 4 8 5